                ,  0.290,  0.386,  0.483,  0.580,  0.676,  0.773,  0.869,  0.966,  1.063,  1.159,  1.256,  1.352,  1.449,  1.545,  1.642,  1.739,  1.835,  1.932,  2.028,  2.125,  2.222,  2.318,  2.415,  2.511,  2.608,  2.705,  2.801,  2.898,  2.994,  3.091,  3.188,  3.284,  3.381,  3.477,  3.574,  3.671,  3.767,  3.864,  3.960,  4.057,  4.153,  4.250,  4.347,  4.443,  4.540,  4.636,  4.733,  4.830,  4.926,  5.023,  5.119,  5.216,  5.313,  5.409,  5.506,  5.602,  5.699,  5.796
2000/12/20 00:00,  999.0,  999.0,  999.0,    2.6,    5.7,    5.2,  999.0,    9.5,    6.8,  999.0,   10.4,    7.6,    4.5,    3.0,  999.0,  999.0,    5.2,    5.6,    6.8,    7.4,  999.0,  999.0,  999.0,  999.0,  999.0,  999.0,  999.0,  999.0,  999.0,  999.0,  999.0,  999.0,  999.0,  999.0,  999.0,  999.0,  999.0,  999.0,  999.0,  999.0,  999.0,  999.0,  999.0,  999.0,  999.0,  999.0,  999.0,  999.0,  999.0,  999.0,  999.0,  999.0,  999.0,  999.0,  999.0,  999.0,  999.0,  999.0
2000/12/20 00:10,  999.0,    3.3,    2.6,    2.3,    3.6,    3.7,    2.9,    6.2,    3.9,    4.6,    5.5,    3.9,    3.6,    3.9,    3.8,    2.7,    2.9,    3.5,    3.8,    0.4,    3.3,    2.2,    5.8,    6.7,    9.7,    7.8,  999.0,  999.0,  999.0,  999.0,  999.0,  999.0,   15.8,  999.0,  999.0,  999.0,  999.0,  999.0,  999.0,  999.0,  999.0,  999.0,  999.0,  999.0,  999.0,   20.7,  999.0,  999.0,  999.0,  999.0,  999.0,  999.0,  999.0,  999.0,  999.0,  999.0,  999.0,  999.0
2000/12/20 00:20,  999.0,    3.3,    2.9,    3.6,    4.7,    3.5,    5.7,    5.0,    4.9,    6.1,    4.5,    3.5,    2.2,  999.0,  999.0,    2.9,    4.1,    4.3,    4.9,    5.3,    6.3,    8.6,    2.4,  999.0,  999.0,  999.0,    9.2,  999.0,   18.8,  999.0,   15.1,  999.0,  999.0,  999.0,  999.0,   23.3,  999.0,  999.0,  999.0,  999.0,  999.0,   22.8,  999.0,  999.0,  999.0,  999.0,  999.0,   23.3,  999.0,  999.0,  999.0,  999.0,  999.0,  999.0,  999.0,  999.0,  999.0,  999.0
2000/12/20 00:30,  999.0,    3.2,    2.2,    3.0,    2.4,    3.5,    3.3,    5.3,    4.7,    6.2,    5.2,    3.3,    2.7,    2.5,    3.0,    3.0,    3.9,    2.5,    2.9,    0.6,   -0.6,  999.0,  999.0,  999.0,  999.0,  999.0,  999.0,  999.0,  -22.6,  999.0,  999.0,  999.0,  999.0,   18.9,  999.0,  999.0,  999.0,  999.0,  999.0,  999.0,  999.0,  999.0,  999.0,  999.0,  999.0,  999.0,  999.0,  999.0,  999.0,  999.0,  999.0,  999.0,  999.0,  999.0,  999.0,  999.0,  999.0,  999.0
2000/12/20 00:40,  999.0,    3.5,    1.8,    2.3,    3.3,    3.5,  999.0,    5.5,    4.9,    3.8,    4.6,    3.2,    3.0,    2.9,    2.6,    1.9,    2.7,    3.6,   -0.1,    0.1,   -2.1,  999.0,  999.0,  999.0,  999.0,   14.3,   12.6,  999.0,  999.0,  999.0,  999.0,    5.9,    4.1,  999.0,    1.8,    0.7,  999.0,  999.0,  999.0,  999.0,  999.0,  999.0,    1.7,    1.5,  999.0,    1.5,    2.6,  999.0,  999.0,  999.0,  999.0,    0.5,    0.7,  999.0,  999.0,  999.0,  999.0,  999.0
2000/12/20 00:50,  999.0,    4.0,    3.2,    2.6,    2.2,    2.5,    2.9,    4.6,    4.2,    4.4,    4.8,    3.5,    2.7,    2.9,    2.2,    2.3,    2.8,    2.2,    1.7,    0.0,   -1.5,   -2.6,   -1.8,  999.0,  999.0,  999.0,  999.0,  999.0,  999.0,  999.0,  999.0,  999.0,  999.0,  999.0,    1.5,  999.0,  999.0,  999.0,  999.0,  999.0,  999.0,    0.6,  999.0,    0.4,  999.0,  999.0,    1.0,    0.9,    0.2,    0.4,    0.6,    0.4,    0.8,    0.6,    0.7,    0.6,    0.7,    0.7
2000/12/20 01:00,  999.0,    2.6,    1.5,    2.1,    2.7,    1.9,    5.4,    6.4,    6.0,    5.7,    4.7,    3.9,    3.8,    3.2,    2.9,    2.2,    2.9,    4.5,    8.2,    9.5,   11.0,   11.2,   11.4,   -0.3,  999.0,  999.0,  999.0,  999.0,  999.0,  999.0,  999.0,  999.0,  999.0,  999.0,  999.0,  999.0,  999.0,  999.0,    5.0,  999.0,  999.0,    3.1,    2.4,    1.9,    0.9,  999.0,  999.0,    1.7,  999.0,    1.1,  999.0,    0.4,    0.3,    0.7,   -0.1,  999.0,  999.0,  999.0
2000/12/20 01:10,  999.0,    4.4,    2.9,    1.9,    3.5,    3.4,    4.6,    6.6,    5.7,    6.4,    6.1,    4.3,    3.0,    3.1,    2.3,    1.9,    2.6,    2.4,  999.0,  999.0,  999.0,  999.0,  999.0,  999.0,  999.0,  999.0,  999.0,  999.0,  999.0,  999.0,  999.0,  999.0,  999.0,  999.0,  999.0,  999.0,  999.0,  999.0,  999.0,  999.0,  999.0,  999.0,  999.0,  999.0,  999.0,  999.0,  999.0,  999.0,  999.0,  999.0,  999.0,  999.0,  999.0,  999.0,  999.0,  999.0,  999.0,  999.0
2000/12/20 01:20,  999.0,    5.1,    3.0,    4.1,    4.7,    4.5,    6.0,    5.4,    6.4,    5.2,    5.6,    5.0,    3.9,    3.0,    1.8,    1.7,    1.6,  999.0,  999.0,    1.1,    0.8,   -0.1,   -0.4,  999.0,  999.0,  999.0,   -0.3,  999.0,  999.0,  999.0,   -0.9,  999.0,  999.0,  999.0,  999.0,  999.0,  999.0,  999.0,  999.0,  999.0,  999.0,   21.7,  999.0,  999.0,  999.0,  999.0,  999.0,  999.0,  999.0,  999.0,  999.0,  999.0,  999.0,  999.0,  999.0,  999.0,  999.0,  999.0
2000/12/20 01:30,  999.0,    2.8,    2.9,    3.9,    6.0,    6.3,    5.5,    5.0,    5.8,    5.9,    5.8,    4.2,    3.5,    3.1,    2.6,    2.3,    2.1,  999.0,    2.4,    1.1,    0.9,  999.0,  999.0,  999.0,  999.0,  999.0,  999.0,  999.0,  999.0,  999.0,  999.0,  999.0,  999.0,  999.0,  999.0,  999.0,  999.0,  999.0,  999.0,  999.0,  999.0,  999.0,  999.0,  999.0,  999.0,  999.0,  999.0,  999.0,  999.0,  999.0,  999.0,  999.0,  999.0,  999.0,  999.0,  999.0,  999.0,  999.0
2000/12/20 01:40,  999.0,    0.9,    2.4,    4.6,    6.0,    5.7,    3.8,    4.8,    7.4,    5.9,    5.3,    4.9,    3.4,    3.9,    3.3,    3.2,    2.7,    2.2,  999.0,   -0.7,   -2.6,   -5.1,  999.0,  999.0,  999.0,  999.0,  999.0,  999.0,  999.0,  999.0,  999.0,  999.0,  999.0,  999.0,   -5.1,    0.9,  999.0,    0.7,    0.6,  999.0,    0.9,    0.5,    0.4,    0.8,    0.6,    0.9,    0.5,    0.8,    0.8,    0.8,    0.6,    0.9,    0.3,    0.3,    0.7,  999.0,    1.0,    1.0
2000/12/20 01:50,  999.0,    1.8,    2.3,    3.8,    5.1,    5.2,    5.7,    8.0,    6.1,    5.8,    4.7,    4.1,    3.8,    3.3,    1.7,    2.1,    1.6,    1.5,   -2.4,   -2.0,   -4.3,  999.0,  999.0,  999.0,  999.0,  999.0,  999.0,  999.0,  999.0,    0.8,  999.0,   -6.7,  999.0,  999.0,  999.0,  999.0,    0.3,    0.9,    0.7,    0.9,  999.0,    0.9,    0.5,  999.0,    1.0,    1.6,    0.3,    1.1,    1.0,    1.2,    1.9,    0.5,    1.3,    0.3,    0.4,    0.5,    0.8,    0.6
2000/12/20 02:00,  999.0,    2.4,    1.5,   -2.0,    4.1,    3.5,    5.6,    7.2,    3.6,    2.9,    5.2,    3.9,    3.1,    3.1,    2.8,    2.0,    1.9,    1.0,    0.5,   -0.1,  999.0,  999.0,  999.0,  999.0,   12.4,   11.3,  999.0,    7.8,  999.0,  999.0,  999.0,  999.0,  999.0,    0.7,    0.5,    1.1,    0.2,    0.9,    0.8,    1.9,    0.2,    0.5,    0.3,  999.0,    0.8,  999.0,    0.5,    1.2,    0.5,    0.4,    0.5,    0.4,    1.0,    0.1,    0.1,    0.4,    0.3,    0.5
2000/12/20 02:10,  999.0,    3.0,    2.4,    2.9,    5.4,    5.3,    5.1,    6.5,    7.6,    4.1,    5.3,    4.0,    3.8,    3.3,    2.9,    2.6,    2.2,    0.0,   -0.8,   -1.6,   -3.9,   -4.4,  999.0,   -6.4,  999.0,  999.0,  999.0,  999.0,  999.0,    2.4,    0.2,    1.0,    0.3,    0.5,    0.9,    0.9,  999.0,    0.7,    0.2,    0.7,    0.6,    0.2,    0.5,    0.4,    0.4,    1.0,    0.3,    1.0,    0.8,    1.0,    0.4,    0.8,    1.2,    1.1,    0.5,    1.5,    1.0,    0.4
2000/12/20 02:20,  999.0,    4.0,    2.9,    4.0,    4.4,    4.6,    6.1,    6.4,    4.9,    5.4,    4.7,    4.2,    4.1,    4.3,    4.2,    3.7,    4.1,    2.2,    1.8,    0.6,    0.3,  999.0,  999.0,  999.0,  999.0,  999.0,  999.0,  999.0,  999.0,  999.0,    3.8,    2.7,    0.8,  999.0,    0.0,    0.8,  999.0,    0.5,    0.8,    1.5,  999.0,  999.0,    1.0,    0.5,    0.8,    0.8,    0.5,    1.4,    0.6,    0.6,    0.3,    0.5,    0.6,    0.9,    0.7,    0.8,  999.0,  999.0
2000/12/20 02:30,  999.0,    2.3,    1.5,    1.5,    2.3,    3.0,    4.0,    3.8,    4.1,    5.1,    4.0,    3.7,    3.8,    3.0,    2.5,    2.4,    1.1,    0.9,    0.8,   -0.7,   -1.9,   -3.0,  999.0,  999.0,  999.0,  999.0,  999.0,  999.0,    1.0,    0.7,  999.0,    0.3,  999.0,    0.3,    0.6,    0.2,  999.0,    0.2,    1.2,    0.7,    1.3,    0.5,    0.6,    0.3,    0.2,    0.7,  999.0,  999.0,    0.6,    0.8,  999.0,    1.1,  999.0,    0.1,    0.4,    1.4,    1.1,    0.4
2000/12/20 02:40,  999.0,    4.7,    1.3,    1.7,    2.7,    3.1,    2.7,    5.3,  999.0,    6.1,    5.0,    4.0,    3.8,    3.6,    3.0,    2.0,    1.8,    1.4,    0.9,   -1.1,  999.0,  999.0,  999.0,  999.0,  999.0,  999.0,  999.0,  999.0,  999.0,  999.0,  999.0,  999.0,  999.0,  999.0,  999.0,  999.0,  999.0,  999.0,  999.0,  999.0,  999.0,  999.0,  999.0,  999.0,  999.0,  999.0,  999.0,  999.0,  999.0,  999.0,  999.0,  999.0,  999.0,  999.0,  999.0,  999.0,  999.0,  999.0
2000/12/20 02:50,  999.0,    0.7,    1.8,    2.1,    2.6,    3.0,    4.7,    5.2,    3.9,    4.4,    4.2,    4.1,    3.7,    2.7,    2.4,    1.7,    2.2,    2.0,    2.5,    2.9,  999.0,  999.0,  999.0,  999.0,  999.0,  999.0,  999.0,  999.0,  999.0,  999.0,  999.0,  999.0,  999.0,  999.0,  999.0,  999.0,  999.0,  999.0,  999.0,  999.0,  999.0,  999.0,  999.0,  999.0,  999.0,  999.0,  999.0,  999.0,  999.0,  999.0,  999.0,  999.0,  999.0,  999.0,  999.0,  999.0,  999.0,  999.0
2000/12/20 03:00,  999.0,    0.7,    1.5,    3.7,    3.4,    1.8,    8.0,    5.3,    7.0,    4.6,    3.6,    3.0,    3.0,    3.4,    2.7,    1.6,    1.1,    1.4,    2.0,  999.0,  999.0,  999.0,  999.0,   -1.8,  999.0,  999.0,  999.0,  999.0,  999.0,  999.0,   -1.1,   -0.7,  999.0,   -0.8,   -0.9,   -0.7,  999.0,  999.0,  999.0,   -0.9,   -0.9,   -0.5,  999.0,   -0.6,   -0.8,   -0.7,  999.0,   -0.4,   -1.0,   -0.7,   -0.7,   -0.8,   -0.4,   -0.6,   -1.0,  999.0,  999.0,  999.0
2000/12/20 03:10,  999.0,  999.0,    1.4,    1.8,    3.8,    5.1,    5.8,    5.1,    5.0,    5.0,    3.1,    2.1,    2.6,    1.8,    1.7,    2.3,    3.1,    4.7,    6.4,  999.0,    7.5,    9.8,   11.7,  999.0,  999.0,  999.0,  999.0,  999.0,  999.0,  999.0,  999.0,  999.0,   -0.6,   -0.5,   -0.9,  999.0,   -1.3,   -0.9,  999.0,   -1.1,   -1.2,   -0.5,   -0.6,  999.0,   -1.4,   -1.3,  999.0,   -0.9,   -1.3,  999.0,   -0.7,    0.0,   -0.5,   -0.4,    0.2,   -1.3,  999.0,   -0.7
2000/12/20 03:20,  999.0,  999.0,    2.4,    2.9,    3.7,    4.8,    3.7,    4.0,    4.0,    3.9,    3.7,    2.8,    2.5,    2.4,    1.7,    1.4,    2.0,    1.9,    2.8,    5.3,  999.0,    8.9,   10.8,  999.0,   18.8,  999.0,  999.0,  999.0,   23.9,   23.8,  999.0,  999.0,   22.7,   22.6,   24.3,   22.6,  999.0,  999.0,  999.0,  999.0,  999.0,  999.0,   20.9,  999.0,   22.0,  999.0,   24.2,  999.0,   20.6,  999.0,  999.0,   21.3,  999.0,  999.0,  999.0,  999.0,  999.0,  999.0
2000/12/20 03:30,  999.0,  999.0,  999.0,   -0.6,    4.1,    6.2,    3.8,    4.4,    4.1,    3.9,    3.2,    2.0,    1.8,    1.9,    2.6,    2.7,    2.5,    2.1,    3.0,  999.0,  999.0,  999.0,    9.4,  999.0,   10.8,  999.0,  999.0,  999.0,   18.7,   20.9,  999.0,  999.0,  999.0,  999.0,  999.0,  999.0,  999.0,  999.0,   23.0,  999.0,  999.0,  999.0,  999.0,  999.0,  999.0,  999.0,  999.0,  999.0,  999.0,  999.0,  999.0,  999.0,  999.0,  999.0,  999.0,  999.0,  999.0,  999.0
2000/12/20 03:40,  999.0,  999.0,    4.5,    2.5,    1.6,    4.4,    4.7,    4.6,    5.1,    4.1,    3.8,    2.9,    2.7,    2.4,    2.1,    2.2,    2.2,    3.7,    4.9,    5.7,    6.7,    8.5,    9.2,  999.0,   -8.9,   -7.3,  999.0,   -4.1,  999.0,  999.0,  999.0,   -0.1,   -0.1,  999.0,   -0.0,   -0.6,  999.0,   -1.3,  999.0,  999.0,  -10.5,  999.0,   -0.1,   -0.2,  999.0,   -0.0,   -1.0,   -0.7,   -5.9,  999.0,  -12.0,  -27.1,  999.0,   -0.9,   -0.4,  999.0,  -10.4,  999.0
2000/12/20 03:50,  999.0,  999.0,   -0.4,    2.5,    3.7,    4.5,    3.2,    5.9,    5.0,    4.6,    4.1,    3.5,    3.0,    2.7,    2.1,    1.5,    2.1,    2.2,    3.0,    3.2,  999.0,  999.0,  999.0,  999.0,  999.0,  999.0,  999.0,  999.0,  999.0,  999.0,  999.0,  999.0,   -1.1,   -0.1,  999.0,  999.0,   -0.5,   -0.9,  999.0,   -0.6,    0.1,   -0.8,   -0.3,   -1.2,   -0.7,   -2.2,   -0.3,   -0.8,   -0.2,  999.0,   -0.2,   -0.8,   -0.4,   -0.2,   -0.6,  999.0,   -0.3,   -0.9
2000/12/20 04:00,  999.0,  999.0,  999.0,    4.3,    4.4,    4.7,    4.7,    6.3,    5.8,    3.9,    4.7,    5.0,    3.8,    2.8,    2.2,    1.5,    2.7,    3.7,    5.4,    4.9,    6.1,    7.6,  999.0,  999.0,   10.2,   10.2,  999.0,  999.0,   15.9,  999.0,  999.0,  999.0,  999.0,  999.0,  999.0,  999.0,  999.0,  999.0,    0.0,   -1.0,   -0.9,  999.0,   -0.4,   -0.3,  999.0,   -1.0,   -0.2,   -0.5,   -0.9,   -0.4,   -0.3,   -0.5,   -1.5,   -0.6,   -1.4,  999.0,   -0.5,  999.0
2000/12/20 04:10,  999.0,  999.0,    8.3,    3.8,    2.6,    4.1,    5.8,    4.2,    4.6,    4.2,    4.2,    3.5,    3.8,    2.4,    2.6,    2.3,    3.3,    4.7,    3.7,    4.4,  999.0,   10.0,   11.1,    6.7,  999.0,  999.0,  999.0,  999.0,  999.0,  999.0,  999.0,  999.0,  999.0,   -0.9,  999.0,   -1.3,  999.0,   -0.9,   -1.7,  999.0,   -0.6,   -1.1,   -1.4,   -1.6,   -0.5,   -1.0,   -0.9,   -1.0,   -0.9,  999.0,   -0.9,   -1.3,  999.0,   -1.1,   -0.8,   -0.9,   -1.1,   -1.3
2000/12/20 04:20,  999.0,  999.0,  999.0,    2.7,    2.0,    3.2,    4.6,    4.5,    3.9,    3.9,    4.1,    4.0,    2.8,    2.5,    2.4,    0.7,    2.9,    5.1,    5.4,    6.0,    6.8,    6.9,    1.9,    3.7,  -10.3,  999.0,  999.0,  999.0,  999.0,  999.0,  999.0,    3.9,   -0.4,  999.0,   -0.9,  999.0,  999.0,   23.1,    8.0,   -0.4,  999.0,   -0.3,   -0.4,   -0.5,   -0.7,   -0.7,   -1.2,   -1.2,   -0.8,  999.0,   -0.9,   -1.5,   -0.3,  999.0,  999.0,   -1.0,   -0.7,  999.0
2000/12/20 04:30,  999.0,    0.6,  999.0,    6.7,    2.8,    2.9,    3.5,    3.4,    4.3,    4.5,    4.4,    3.6,    3.0,    2.2,    2.3,    1.3,    1.1,   -0.8,   -0.7,   -2.3,   -4.4,   -4.6,   -5.5,  -12.4,  -12.6,  999.0,  -14.5,  999.0,  999.0,  -20.2,  -23.9,  -24.2,  -23.1,  -21.8,  -20.8,  -20.3,  999.0,  999.0,  999.0,  999.0,  999.0,  999.0,  999.0,  999.0,  999.0,  999.0,  999.0,  999.0,  999.0,  999.0,  999.0,  999.0,  999.0,  999.0,  999.0,  999.0,  999.0,  999.0
2000/12/20 04:40,  999.0,    0.2,    3.7,    0.0,    6.0,    4.1,    3.8,    4.7,    4.5,    5.2,    5.4,    4.8,    4.2,    2.5,    2.3,    1.8,    2.0,    1.4,    0.3,    0.5,   -0.9,    0.5,   -1.5,   -2.1,   -5.6,   -5.9,  999.0,  999.0,  999.0,   -1.1,  999.0,   -0.8,   -8.4,  999.0,  999.0,  999.0,  999.0,  999.0,  999.0,  999.0,  999.0,  999.0,  999.0,  999.0,  999.0,  999.0,  999.0,  999.0,  999.0,  999.0,  999.0,  999.0,  999.0,  999.0,  999.0,  999.0,  999.0,  999.0
2000/12/20 04:50,  999.0,    1.4,    2.7,    3.1,    3.7,    4.3,    1.0,    2.0,    3.1,    5.0,    5.4,    4.7,    3.4,    2.7,    2.4,    0.7,    1.1,    0.7,    0.6,    0.2,    0.7,    0.6,   -2.6,   -4.6,   -5.2,   -4.8,   -4.4,   -9.6,   -8.0,  999.0,    2.9,    1.9,  999.0,   12.0,  999.0,  999.0,    9.4,    8.4,  999.0,  999.0,    6.2,  999.0,  999.0,    3.9,  999.0,  999.0,  999.0,    1.4,    0.9,  999.0,  999.0,  999.0,    0.3,  999.0,   -0.3,  999.0,  999.0,  999.0
2000/12/20 05:00,  999.0,    2.2,    1.4,    2.5,    5.4,    2.8,    3.7,    3.4,    4.0,    4.8,    4.3,    3.5,    2.5,    2.6,    2.6,    1.2,    0.4,   -0.6,   -1.0,   -4.2,   -5.3,  999.0,  999.0,  -10.9,  -12.1,  -12.5,  -12.6,  -14.9,  -14.8,  -15.1,  -18.3,  -19.9,  -20.6,  -21.5,  -22.5,  999.0,  999.0,  999.0,  999.0,  999.0,  999.0,  999.0,  999.0,  999.0,  999.0,  999.0,  999.0,  999.0,  999.0,  999.0,  999.0,  999.0,  999.0,  999.0,  999.0,  999.0,  999.0,  999.0
2000/12/20 05:10,  999.0,    2.0,    0.9,    1.4,    1.0,    1.4,    1.7,    3.1,    2.7,    4.1,    4.0,    2.9,    3.2,    2.8,    2.1,    1.5,    0.5,   -0.4,   -1.0,   -2.7,  999.0,  999.0,   -9.9,  -11.3,  -12.9,  999.0,  -18.0,  -17.7,  -19.2,  -17.9,  -20.3,  999.0,  -22.7,  -22.3,  -20.6,  999.0,  999.0,  999.0,  999.0,  999.0,  999.0,  999.0,  999.0,  999.0,  999.0,  999.0,  999.0,  999.0,  999.0,  999.0,  999.0,  999.0,  999.0,  999.0,  999.0,  999.0,  999.0,  999.0
2000/12/20 05:20,  999.0,    2.6,   -1.0,    0.6,    2.5,    2.6,    3.0,    2.3,    2.6,    3.3,    3.4,    3.3,    3.0,    3.0,    2.0,    1.7,    0.8,   -0.4,   -3.0,  999.0,  999.0,  999.0,  -10.9,  -14.0,  -16.5,  -20.6,  -22.9,  -22.9,  -21.3,  -21.3,  -26.2,  -23.8,  -21.4,  -22.2,  -27.3,  999.0,  999.0,  999.0,  999.0,  999.0,  999.0,  999.0,  999.0,  999.0,  999.0,  999.0,  999.0,  999.0,  999.0,  999.0,  999.0,  999.0,  999.0,  999.0,  999.0,  999.0,  999.0,  999.0
2000/12/20 05:30,  999.0,  999.0,  999.0,  999.0,   -0.9,   -0.9,   -1.2,    1.8,    0.4,    2.1,    3.0,    2.6,    3.8,    3.7,    2.7,    1.9,    2.1,    1.0,  999.0,   -3.4,  999.0,   -4.6,   -6.5,   -8.3,   -8.3,  -13.0,  -19.0,  -14.4,  -14.4,  -14.8,  -13.0,  -13.8,  -12.9,  -15.7,  -19.3,  999.0,  999.0,   -8.2,  999.0,  999.0,  999.0,  999.0,  -20.4,  999.0,  999.0,  999.0,  999.0,  999.0,  999.0,  999.0,  999.0,  999.0,  999.0,  999.0,  999.0,  999.0,  999.0,  999.0
2000/12/20 05:40,  999.0,  999.0,  999.0,  999.0,  999.0,    0.9,    2.0,    2.3,    2.1,    2.1,    3.5,    3.7,    2.9,    2.6,    0.5,    0.1,   -0.3,  999.0,  999.0,   -4.3,  -10.2,   -9.2,   -9.9,  -12.1,  -14.9,  999.0,  -12.4,  -13.2,  -15.9,  999.0,  -19.2,  -19.6,  -21.0,  999.0,  999.0,  999.0,  999.0,  999.0,  999.0,  999.0,  999.0,  999.0,  999.0,  999.0,  999.0,  999.0,  999.0,  999.0,  999.0,  999.0,  999.0,  999.0,  999.0,  999.0,  999.0,  999.0,  999.0,  999.0
2000/12/20 05:50,  999.0,  999.0,  999.0,  999.0,   -0.4,    2.3,   -1.7,    1.9,    3.6,    2.7,    3.6,    4.1,    3.3,    2.0,    0.3,    1.0,    1.0,  999.0,   -2.8,   -1.6,   -4.6,   -7.5,  999.0,  999.0,  999.0,  999.0,  -16.3,  999.0,  -20.1,  -22.0,  -21.4,  -21.8,  -19.0,  999.0,  999.0,  999.0,  999.0,  999.0,  999.0,  999.0,  999.0,  999.0,  999.0,  999.0,  999.0,  999.0,  999.0,  999.0,  999.0,  999.0,  999.0,  999.0,  999.0,  999.0,  999.0,  999.0,  999.0,  999.0
2000/12/20 06:00,  999.0,    1.1,    6.3,  999.0,    5.2,    0.2,    0.6,    1.6,    2.0,    1.3,    0.3,    4.5,    3.4,    2.6,    1.1,    1.0,   -0.2,  999.0,   -5.4,   -7.7,   -8.8,  -11.2,  -15.0,  999.0,  999.0,  999.0,  999.0,  999.0,  999.0,  999.0,  999.0,  999.0,  999.0,  999.0,  999.0,  999.0,  999.0,  999.0,  999.0,  999.0,  999.0,  999.0,  999.0,  999.0,  999.0,  999.0,  999.0,  999.0,  999.0,  999.0,  999.0,  999.0,  999.0,  999.0,  999.0,  999.0,  999.0,  999.0
2000/12/20 06:10,  999.0,    2.2,    3.8,    7.1,    4.2,    2.5,    3.0,    2.7,    3.6,    5.3,    3.9,    2.5,    3.5,    2.6,    1.7,    1.8,    0.4,    0.7,  999.0,   -5.4,   -7.1,  -10.0,  -12.5,  -18.5,  999.0,  999.0,  999.0,  999.0,  -17.3,  999.0,  999.0,  999.0,  999.0,  999.0,  999.0,  999.0,  999.0,  999.0,  999.0,  999.0,  999.0,  999.0,  999.0,  999.0,  999.0,  999.0,  999.0,  999.0,  999.0,  999.0,  999.0,  999.0,  999.0,  999.0,  999.0,  999.0,  999.0,  999.0
2000/12/20 06:20,  999.0,   -1.5,    2.6,    7.5,    3.2,    0.4,    0.3,    0.1,    1.9,    2.4,    5.3,    3.2,    2.6,    1.7,    3.5,    2.6,   -0.3,   -0.7,   -0.0,   -0.0,   -3.1,   -5.1,   -7.0,   -9.3,  -10.1,  -10.4,  -11.9,  999.0,  -11.1,  999.0,  999.0,  999.0,  999.0,  999.0,  999.0,  999.0,  999.0,  999.0,  999.0,  999.0,  999.0,  999.0,  999.0,  999.0,  999.0,  999.0,  999.0,  999.0,  999.0,  999.0,  999.0,  999.0,  999.0,  999.0,  999.0,  999.0,  999.0,  999.0
2000/12/20 06:30,  999.0,    0.4,  999.0,  999.0,    2.3,    1.7,    1.2,    2.2,    3.0,    1.3,    6.1,    3.5,    2.9,    2.0,    1.8,    1.3,   -1.0,   -1.8,  999.0,   -0.0,    0.5,  999.0,  999.0,    2.3,  999.0,  999.0,  999.0,  999.0,  999.0,  999.0,  999.0,  999.0,  999.0,  999.0,  999.0,  999.0,  999.0,  999.0,  999.0,  999.0,  999.0,  999.0,  999.0,  999.0,  999.0,  999.0,  999.0,  999.0,  999.0,  999.0,  999.0,  999.0,  999.0,  999.0,  999.0,  999.0,  999.0,  999.0
2000/12/20 06:40,  999.0,    1.8,    2.1,    2.4,    2.7,    0.5,    1.7,    2.0,    3.3,    7.1,    5.3,    3.4,    2.7,    2.1,    0.7,   -0.3,    1.4,    1.5,    0.2,   -0.5,   -1.1,  999.0,  999.0,  999.0,  999.0,  999.0,  999.0,  999.0,  999.0,  999.0,  999.0,  999.0,  999.0,  999.0,  999.0,   -8.1,   -7.5,   -6.1,  999.0,   -4.3,  999.0,  999.0,  999.0,   -0.8,  999.0,  999.0,   -0.5,   -0.6,  999.0,   -1.0,   -0.9,  999.0,   -0.9,   -0.7,    0.0,   -0.9,   -0.9,  999.0
2000/12/20 06:50,  999.0,    5.5,    5.0,    8.2,    3.9,    0.0,   -1.6,   -0.2,    4.0,    5.8,    4.7,    3.0,    2.2,    2.1,    1.5,    1.1,    0.6,  999.0,  999.0,   -0.6,   -1.0,  999.0,  999.0,  999.0,  999.0,    8.8,  999.0,  999.0,  999.0,  999.0,  999.0,  999.0,  999.0,  -10.3,   -9.6,  999.0,   -8.3,  999.0,   -6.2,  999.0,  999.0,   -4.0,   -3.3,   -2.0,  999.0,    9.4,  999.0,  999.0,  999.0,  999.0,  999.0,   -0.8,   -0.5,  999.0,  999.0,  999.0,  999.0,  999.0
2000/12/20 07:00,  999.0,    2.9,    6.3,    5.1,    4.5,    7.2,    3.3,    3.6,   12.4,  999.0,    5.1,    3.9,    3.4,    2.3,    1.5,    1.5,    1.4,    1.1,   -0.1,   -1.4,   -2.3,   -4.4,   -4.0,  999.0,  999.0,  999.0,  999.0,  -20.0,  -23.4,  999.0,   -4.9,  -13.0,   -2.8,   -3.6,   -7.1,   -7.0,   -2.2,   -1.0,   -3.1,   -1.4,   -1.2,   -0.5,   -1.2,   -1.2,   -1.2,   -1.1,   -1.1,   -1.1,   -1.2,   -1.0,   -1.0,   -0.9,   -0.5,   -0.6,   -0.6,   -0.3,   -0.6,   -0.4
2000/12/20 07:10,  999.0,    1.8,    3.3,    5.7,    5.2,    2.1,    1.0,    1.5,    2.7,    3.6,    4.2,    6.2,    3.6,    2.5,    1.5,    1.1,    1.5,    2.5,    3.2,    2.3,    2.8,    3.4,    2.1,   30.0,   12.4,  999.0,  999.0,  999.0,  999.0,  999.0,   19.4,    6.9,   20.6,   -2.0,   -3.0,   -1.8,   -0.6,  999.0,   -0.6,   -0.6,   -1.1,   -1.0,   -0.5,   -0.4,   -0.9,   -0.8,   -0.6,   -0.6,   -0.7,   -0.5,   -0.7,   -1.0,   -1.2,   -1.0,   -0.8,   -0.9,   -0.5,   -0.9
2000/12/20 07:20,  999.0,    2.6,    1.6,    2.1,    3.8,    2.0,    1.8,   -0.0,    2.4,    4.1,    6.6,  999.0,    3.8,    3.2,    1.7,    1.3,  999.0,    5.5,    0.7,  999.0,    9.5,    4.9,  999.0,  999.0,  -13.0,  -14.6,  -16.9,    7.4,    9.2,   12.1,   13.3,   15.2,   -0.6,   -0.9,   -0.6,   -1.1,   -1.1,   -1.3,  -12.4,   -0.8,   -0.6,   -5.9,  999.0,   -0.7,   -3.4,   -5.3,   -0.9,   -0.4,   -0.0,   -0.4,   -0.7,   -4.7,   -7.2,   -3.9,   -1.6,   -1.0,   -0.7,   -0.3
2000/12/20 07:30,  999.0,   -0.6,    1.1,    4.1,    3.0,    1.2,    0.7,    1.8,    2.8,    3.7,  999.0,  999.0,    3.5,    4.8,    2.1,    3.0,    4.7,  999.0,  999.0,  999.0,    0.6,   -0.3,   -4.4,   -3.9,   -0.5,  -10.5,  -10.4,    1.4,   -6.0,    2.2,   -2.4,    2.7,    4.9,    8.8,    9.9,   -0.3,   -0.6,   -0.4,   -0.4,   -0.8,   -0.6,   -5.7,   -1.3,   -3.9,   -1.0,   -1.0,   -1.8,   -1.3,   -0.8,   -0.9,   -1.2,   -1.1,   -3.6,   -1.6,   -0.5,   -1.0,   -0.3,   -0.6
2000/12/20 07:40,  999.0,    0.6,    2.1,    3.3,    2.2,   -4.0,   -1.5,   -4.8,   -2.2,    0.4,    0.6,    2.1,    2.8,   -0.2,   -1.5,   -1.6,   -3.7,   -4.0,   -5.7,   -7.2,   -8.2,   -9.4,   -8.0,    1.1,  -11.1,  -12.8,   -6.8,   -4.8,   -2.4,   -3.0,  -12.3,  -18.3,  -21.7,    8.6,    5.6,  999.0,   15.5,   25.6,   14.6,   17.2,    8.7,    3.8,    2.7,  -18.7,  999.0,  999.0,  999.0,  999.0,  999.0,   25.5,  999.0,  999.0,  999.0,   10.4,    3.3,  999.0,  999.0,  999.0
2000/12/20 07:50,  999.0,   -1.5,   -3.0,   -1.7,   -5.1,   -3.8,   -2.8,    1.0,    3.1,    4.2,    2.6,    2.9,    5.0,    5.1,    5.2,    1.4,    1.6,    2.5,    3.6,    4.4,    4.7,    4.7,    3.2,    2.3,    0.8,    4.1,    0.9,   -0.2,   -0.1,   -1.2,   -0.8,   -1.3,   -1.7,   -3.7,   -2.3,   -0.1,    4.3,    7.4,   11.6,   24.1,   26.2,    9.3,   13.6,   12.1,   11.4,   23.0,  999.0,  999.0,  999.0,  999.0,   22.6,  999.0,  999.0,  999.0,  999.0,   -1.7,  999.0,   -1.8
2000/12/20 08:00,  999.0,    4.9,   10.2,    7.8,    8.2,    8.7,    9.8,   10.6,    5.3,    1.3,   12.4,    9.7,    8.7,    6.6,    7.2,    6.3,   -2.4,   -2.8,    3.7,   -2.2,    6.9,    7.5,    9.4,  999.0,  999.0,  999.0,  999.0,   14.7,  999.0,  999.0,  999.0,   11.4,   11.4,  999.0,  999.0,  999.0,  999.0,   24.0,  999.0,  999.0,  999.0,   21.7,   24.0,   24.7,   22.8,   23.2,   22.5,   20.3,  999.0,  999.0,  999.0,  999.0,  999.0,  999.0,  999.0,  999.0,  999.0,  999.0
2000/12/20 08:10,  999.0,    1.0,    1.6,    1.2,    1.0,    2.9,    3.5,    4.1,    7.7,    6.9,    6.4,    5.3,    4.7,    5.3,    3.4,    4.2,   10.9,    9.6,   12.6,   14.4,   19.0,   16.3,  999.0,  999.0,   20.6,   18.9,   18.7,  999.0,  999.0,  999.0,  999.0,  999.0,  999.0,  999.0,  999.0,  999.0,  999.0,  999.0,  999.0,  999.0,  999.0,  999.0,  999.0,  999.0,  999.0,  999.0,  999.0,  999.0,  999.0,  999.0,  999.0,  999.0,  999.0,  999.0,  999.0,  999.0,  999.0,  999.0
2000/12/20 08:20,  999.0,   -1.0,   -0.5,   -0.4,    0.9,    1.6,    1.8,   -0.4,    4.8,    5.9,    4.7,    2.8,    2.2,    2.5,    2.5,    0.3,    3.5,    8.8,    8.9,  999.0,   10.5,   13.6,  999.0,  999.0,   20.6,   19.4,   21.2,  999.0,  999.0,  999.0,  999.0,  999.0,  999.0,  999.0,  999.0,  999.0,  999.0,  999.0,  999.0,  999.0,  999.0,  999.0,  999.0,  999.0,  999.0,  999.0,  999.0,  999.0,  999.0,  999.0,  999.0,  999.0,  999.0,  999.0,  999.0,  999.0,  999.0,  999.0
2000/12/20 08:30,  999.0,   -0.6,    0.1,    0.4,    2.0,    2.3,    1.1,    2.5,    6.2,    6.6,    9.4,    5.1,    3.2,    3.5,    3.4,    4.9,    6.6,   11.4,   11.0,   12.4,   14.6,   11.1,  999.0,  999.0,  999.0,   21.2,   20.9,  999.0,  999.0,  999.0,  999.0,  999.0,  999.0,  999.0,  999.0,  999.0,  999.0,  999.0,  999.0,  999.0,  999.0,  999.0,  999.0,  999.0,  999.0,  999.0,  999.0,  999.0,  999.0,  999.0,  999.0,  999.0,  999.0,  999.0,  999.0,  999.0,  999.0,  999.0
2000/12/20 08:40,  999.0,   -0.4,   -0.5,    1.0,    2.3,    1.5,    0.2,    6.0,  999.0,    5.0,    5.1,    8.0,    4.6,    2.7,    1.2,    1.8,  999.0,    0.3,   -0.2,   -8.2,    7.5,  999.0,  999.0,  999.0,  999.0,  999.0,  999.0,  -12.1,  999.0,  999.0,  999.0,  999.0,  999.0,  999.0,  999.0,  999.0,  999.0,  999.0,  999.0,  -12.5,  -11.4,   -0.3,  999.0,  999.0,   22.3,   -7.1,  999.0,  999.0,  999.0,  999.0,   20.0,  999.0,  -12.4,   -2.2,  999.0,  -20.9,  999.0,  999.0
2000/12/20 08:50,  999.0,    0.7,   -0.6,    1.3,    2.4,    1.1,    0.6,    3.6,    4.4,    5.6,    7.0,    5.5,    5.1,    2.9,    2.7,  999.0,  999.0,  999.0,  999.0,  999.0,  999.0,   24.9,  999.0,  999.0,  999.0,  999.0,  999.0,  999.0,  999.0,  999.0,  999.0,  999.0,  999.0,  999.0,  999.0,  999.0,  999.0,  999.0,  999.0,  999.0,  999.0,  999.0,  999.0,  999.0,  999.0,  999.0,  999.0,  999.0,  999.0,  999.0,  999.0,  999.0,  999.0,  999.0,  999.0,  999.0,  999.0,  999.0
2000/12/20 09:00,  999.0,    0.5,   -0.1,    2.2,    0.9,    1.9,    4.0,    6.4,    5.1,    6.7,    6.1,    4.7,    3.7,    2.5,    2.8,  999.0,   14.0,  999.0,  999.0,  999.0,  999.0,  999.0,  999.0,  999.0,  999.0,  999.0,  999.0,  999.0,  999.0,  999.0,  999.0,  999.0,  999.0,  999.0,  999.0,  999.0,  999.0,  999.0,  999.0,  999.0,  999.0,  999.0,  999.0,  999.0,  999.0,  999.0,  999.0,  999.0,  999.0,  999.0,  999.0,  999.0,  999.0,  999.0,  999.0,  999.0,  999.0,  999.0
2000/12/20 09:10,  999.0,    0.5,    0.2,    0.8,   -0.0,    0.0,    1.8,    1.2,    4.1,    7.8,    7.2,    4.8,    3.4,  999.0,  999.0,   21.1,  999.0,   22.0,  999.0,  999.0,   29.9,  999.0,  999.0,  999.0,  999.0,  999.0,  999.0,  999.0,  999.0,  999.0,  999.0,  999.0,   26.8,  999.0,  999.0,   27.1,    7.3,   26.5,  999.0,   20.3,   -1.1,  999.0,   20.5,   -0.7,  999.0,  999.0,   -0.9,  999.0,  999.0,  -11.5,  999.0,  999.0,  999.0,   20.9,  999.0,   20.8,  999.0,  999.0
2000/12/20 09:20,  999.0,  999.0,    0.7,    0.3,    3.0,   -1.0,   -3.0,    3.0,    2.5,    1.1,   -4.7,   -2.8,   -5.7,   -4.1,   -7.7,   -9.6,  999.0,  999.0,  999.0,  999.0,   -2.6,  999.0,  999.0,  999.0,  999.0,  999.0,    0.8,  999.0,  999.0,  999.0,  999.0,  999.0,  999.0,    5.2,    7.8,   -0.5,  -14.8,  999.0,  -13.0,  999.0,  999.0,  999.0,  -21.0,  999.0,  -18.7,  999.0,  999.0,  999.0,  999.0,  999.0,  999.0,    2.4,  999.0,   15.0,   20.1,  999.0,    7.5,   -3.7
2000/12/20 09:30,  999.0,  999.0,   -0.2,    2.4,    2.2,    0.5,   -0.3,    0.5,    1.9,    4.7,  999.0,  999.0,  999.0,  999.0,  999.0,   21.6,   25.9,   28.3,   26.3,  999.0,  999.0,  999.0,  999.0,  999.0,  999.0,  999.0,  999.0,  999.0,  999.0,  999.0,  999.0,  999.0,  999.0,  999.0,  999.0,  999.0,  999.0,  999.0,  999.0,  999.0,  999.0,  999.0,  999.0,  999.0,  999.0,  999.0,  999.0,  999.0,  999.0,  999.0,  999.0,  999.0,  999.0,  999.0,  999.0,  999.0,  999.0,  999.0
2000/12/20 09:40,  999.0,    1.9,    2.7,    1.7,    4.3,    1.4,    0.7,    3.2,    9.1,    8.5,   13.5,    8.5,   11.3,   11.4,   11.4,   12.2,   21.5,   25.1,   26.6,    6.8,    8.2,  999.0,  999.0,  999.0,  999.0,  999.0,  999.0,  999.0,  999.0,  999.0,  999.0,  999.0,  999.0,  999.0,  999.0,  999.0,  999.0,  999.0,  999.0,  999.0,   21.1,  999.0,  999.0,  999.0,  999.0,  999.0,  999.0,  999.0,  999.0,  999.0,  999.0,  999.0,  999.0,  999.0,  999.0,  999.0,  999.0,  999.0
2000/12/20 09:50,  999.0,   -1.7,    0.4,    0.2,   -1.1,    2.5,   10.6,    6.4,    8.9,   12.2,    8.5,    4.8,   20.7,    7.8,   12.6,   13.5,  999.0,   27.1,   28.7,   29.4,  999.0,  999.0,  999.0,  999.0,  999.0,  999.0,  999.0,  999.0,  999.0,  999.0,  999.0,  999.0,  999.0,  999.0,  999.0,  999.0,  999.0,  999.0,  999.0,  999.0,  999.0,  999.0,  999.0,  999.0,  999.0,  999.0,  999.0,  999.0,  999.0,  999.0,  999.0,   21.0,   21.3,  999.0,  999.0,    0.7,   20.5,  999.0
2000/12/20 10:00,  999.0,   -2.5,   -1.3,   -1.9,   -1.9,   -0.7,   -0.2,   -0.5,    3.9,    6.3,    5.6,    4.4,    5.0,    4.6,    3.2,    2.3,    0.8,   -1.1,    5.8,  999.0,    6.8,    3.4,  999.0,    0.5,    1.0,   -9.1,    0.2,    1.0,  999.0,    0.8,  999.0,    1.1,  999.0,    8.6,  999.0,   24.5,   21.1,  999.0,   -0.4,  999.0,   11.7,   10.4,   21.2,   21.1,   17.1,  999.0,   28.7,    7.1,  999.0,  999.0,  999.0,   16.9,  999.0,   20.0,  999.0,    1.2,   21.0,   11.7
2000/12/20 10:10,  999.0,   -0.2,    0.3,    2.4,    3.7,    2.8,    3.2,    4.2,    3.7,    5.3,    6.2,    4.6,    3.6,    4.4,    2.9,    2.7,   -0.6,  999.0,  999.0,  999.0,  999.0,  999.0,  999.0,  999.0,  999.0,  999.0,  999.0,  999.0,   29.9,  999.0,  999.0,  999.0,  999.0,  999.0,  999.0,  999.0,  999.0,  999.0,  999.0,  999.0,  999.0,  999.0,  999.0,  999.0,  999.0,  999.0,  999.0,  999.0,  999.0,  999.0,  999.0,  999.0,  999.0,  999.0,  999.0,  999.0,  999.0,  999.0
2000/12/20 10:20,  999.0,    0.8,    1.7,   -0.2,    0.9,    0.8,    1.7,    2.8,    3.9,    4.1,    4.7,    4.8,    4.3,    3.3,    1.9,    2.6,    7.0,   12.0,  999.0,  999.0,  999.0,  999.0,  999.0,  999.0,  999.0,  999.0,  999.0,  999.0,  999.0,  999.0,  999.0,  999.0,  999.0,  999.0,  999.0,  999.0,  999.0,  999.0,  999.0,  999.0,   25.6,  999.0,  999.0,  999.0,  999.0,   23.8,  999.0,  999.0,  999.0,  999.0,  999.0,  999.0,  999.0,  999.0,  999.0,  999.0,  999.0,  999.0
2000/12/20 10:30,  999.0,   -0.4,    0.3,    0.5,    1.5,    1.1,    2.2,    2.2,    3.1,    4.3,    5.2,    4.6,    3.3,    3.3,    3.6,    4.2,    4.6,  999.0,  999.0,  999.0,  999.0,  999.0,  999.0,  999.0,  999.0,  999.0,  999.0,  999.0,  999.0,  999.0,  999.0,  999.0,  999.0,  999.0,  999.0,  999.0,  999.0,   16.0,    6.7,   16.2,   21.2,   20.8,   11.8,  999.0,    0.8,   -0.1,    7.3,   27.3,  999.0,  999.0,  999.0,  999.0,  999.0,   29.6,   24.4,  999.0,  999.0,  999.0
2000/12/20 10:40,  999.0,    0.1,   -0.4,    1.5,    1.7,    2.2,    4.0,    4.8,    4.8,    5.3,    6.0,    5.6,    4.5,    3.5,    1.8,   -1.1,  999.0,  999.0,  999.0,  999.0,  999.0,    0.2,    0.7,    3.5,    9.7,   20.5,    0.9,  999.0,  999.0,    0.6,  999.0,   20.2,   13.0,    5.8,    9.4,    0.6,   10.8,   10.9,    1.0,    5.1,   15.4,  999.0,  999.0,  999.0,  999.0,   28.6,   27.9,   17.4,  999.0,   10.9,   21.3,    0.9,   10.7,   11.8,   11.0,   21.4,  999.0,    2.8
2000/12/20 10:50,  999.0,   -0.2,   -0.8,    0.2,    1.5,    2.5,    3.4,    3.3,    3.1,    4.8,    5.8,    4.5,    4.3,    4.5,  999.0,   -0.6,    0.3,    3.1,  999.0,  999.0,  999.0,  999.0,   15.6,   -3.9,   20.4,  999.0,   20.7,   -0.5,  999.0,   20.7,  999.0,   20.9,  999.0,   -0.9,  999.0,   -0.8,  999.0,  999.0,  999.0,   20.8,  999.0,  999.0,  999.0,  999.0,  999.0,  999.0,  999.0,  999.0,  999.0,  999.0,  999.0,  999.0,  999.0,  999.0,  999.0,  999.0,  999.0,  999.0
2000/12/20 11:00,  999.0,    1.1,    0.3,   -0.3,    1.4,    0.6,    1.3,    3.7,    4.1,    5.4,    5.5,    5.3,    5.3,    3.2,    2.0,    1.0,    0.1,  999.0,  999.0,  999.0,  999.0,  999.0,  999.0,  999.0,  999.0,  999.0,  999.0,  999.0,  -20.0,  999.0,    2.3,  999.0,  999.0,  999.0,   11.6,   29.5,  999.0,   28.9,    8.0,  999.0,   20.9,   21.0,   11.9,    1.1,    9.1,   13.7,   14.2,  999.0,  999.0,  999.0,  999.0,  999.0,  999.0,    4.6,  999.0,   20.0,   20.4,   -0.2
2000/12/20 11:10,  999.0,    0.7,    1.6,    2.2,    3.3,    3.3,    2.9,    4.4,    5.2,    5.7,    5.8,    5.6,    6.5,    8.3,  999.0,  999.0,  999.0,  999.0,  999.0,  999.0,   28.5,  999.0,  999.0,  999.0,  999.0,  999.0,  999.0,  999.0,  999.0,  999.0,  999.0,  999.0,  999.0,  999.0,  999.0,  999.0,  999.0,  999.0,  999.0,  999.0,  999.0,  999.0,  999.0,  999.0,  999.0,  999.0,  999.0,  999.0,  999.0,  999.0,  999.0,  999.0,  999.0,  999.0,  999.0,  999.0,  999.0,  999.0
2000/12/20 11:20,  999.0,    1.3,    1.6,    2.5,    2.8,    2.6,    3.6,    4.7,    4.5,    4.6,    5.0,    5.2,    4.6,    3.0,    2.4,   -0.4,   -3.8,    4.2,   25.0,   26.5,   28.5,   29.0,  999.0,  999.0,  999.0,   25.7,   26.9,   28.7,  999.0,    0.3,  999.0,    0.6,    0.1,   10.6,   -0.4,    0.1,  999.0,   -4.9,    0.2,   10.9,   10.4,   20.4,   10.5,   20.7,   -8.4,   -0.1,    7.1,  999.0,   -6.5,   18.6,    4.3,   12.6,    2.2,   20.7,   27.2,    6.2,  999.0,   -0.1
2000/12/20 11:30,  999.0,    2.2,    2.2,    2.4,    2.7,    2.5,    2.6,    4.0,    4.3,    4.4,    5.2,    4.9,    4.8,    3.8,    3.0,    1.8,   -3.0,  -10.8,  -13.8,  -16.0,  -17.5,  -19.5,  -21.8,  -23.9,  -15.6,  -23.5,  -14.1,  999.0,  999.0,  -20.3,  999.0,  999.0,    0.7,  999.0,   -9.8,    0.5,    1.1,    0.7,   -5.8,    0.7,    0.7,    0.7,    0.3,    0.8,    0.4,    0.8,    0.6,    0.6,    0.8,    0.8,    1.4,    0.7,    0.3,    0.7,    1.1,    0.4,    0.2,    0.8
2000/12/20 11:40,  999.0,    1.1,    2.0,    2.6,    3.6,    3.7,    3.8,    3.2,    3.1,    3.6,    4.0,    3.3,    3.1,    3.1,    2.0,    0.2,   -1.1,   -3.5,  -14.1,  -17.2,   -8.6,   -8.2,    5.7,   -7.5,   -6.2,   -4.9,   -3.8,   -2.2,  -21.9,  999.0,  999.0,  999.0,  -22.8,   -6.9,  999.0,  999.0,  999.0,  999.0,   -0.1,  999.0,  999.0,    0.7,  999.0,   -9.8,    0.5,  -20.4,  -13.7,  -10.4,    0.4,   -9.9,    2.4,    6.2,   -9.6,    0.6,   -6.5,  -10.0,   -6.3,    0.7
2000/12/20 11:50,  999.0,    0.4,    0.3,    0.6,    1.4,    2.5,    3.2,    3.8,    2.9,    2.4,    2.7,    3.7,    3.3,    2.5,    2.4,   -1.0,  999.0,  999.0,  999.0,  999.0,  999.0,  999.0,  999.0,  999.0,  999.0,  999.0,  999.0,  999.0,  999.0,    5.1,    0.5,    0.5,    0.7,    0.3,  999.0,    1.0,    0.6,    0.4,    0.4,  999.0,    0.9,    1.0,    0.6,    0.6,    0.7,    0.9,    0.8,    0.8,    0.7,    0.9,    0.7,    0.7,    0.6,    0.8,    1.1,    0.8,    0.7,    0.9
2000/12/20 12:00,  999.0,    0.2,    0.3,    1.0,    1.6,    1.3,    1.7,    2.0,    3.0,    3.3,    4.0,    3.0,    2.4,    2.3,    1.9,    1.4,    4.1,    6.6,    1.1,   11.6,    0.1,   14.1,   16.5,  999.0,  999.0,  -22.2,  999.0,  -21.7,  -22.3,  999.0,  -21.4,  -21.8,   20.8,   20.8,  999.0,  -20.9,   -6.7,  -13.9,  -20.8,  999.0,  -20.6,  999.0,   10.9,    0.7,    0.5,  999.0,   10.7,   21.5,   21.0,   21.3,   13.1,    0.1,   23.3,    0.7,    0.4,    1.2,    0.9,   11.3
2000/12/20 12:10,  999.0,    1.7,    0.9,    2.7,    1.3,    1.6,    0.4,    1.1,    1.2,    2.2,    2.5,    1.9,    1.7,    0.1,    1.6,    3.8,    9.0,    3.8,    0.9,    4.9,    7.7,   10.9,  999.0,   -1.0,   -0.9,   -0.7,   -0.7,   -1.1,   -0.8,   -1.1,   -0.8,   -0.8,   -1.0,   -0.6,   -0.8,   -0.7,  999.0,   -0.6,   -0.7,   -0.7,   -0.8,  999.0,   -1.3,  999.0,  999.0,   -1.2,  999.0,  999.0,   -0.7,  999.0,  999.0,  999.0,  999.0,  999.0,  999.0,   -1.2,   20.6,  999.0
2000/12/20 12:20,  999.0,    0.9,   -0.3,    1.7,    1.8,    1.1,   -0.4,   -0.1,   -0.4,   -0.6,   -0.3,    0.3,    1.3,    2.4,    0.3,   -0.1,   -0.6,    0.7,    0.9,    4.2,    5.8,   -2.6,    2.7,    9.0,    4.9,   -0.4,    6.5,   -0.8,   20.6,   -0.6,   -1.0,    9.7,   -1.0,   13.4,    6.1,   -0.5,   20.8,   13.6,    9.9,   -0.5,   -0.5,  999.0,  999.0,   -0.9,   -1.0,  999.0,   -0.8,  999.0,  999.0,   -0.9,   -0.9,   -0.0,  999.0,   -0.6,  999.0,  999.0,   20.9,   -0.2
2000/12/20 12:30,  999.0,    1.3,    1.7,    0.5,    0.1,   -0.5,    0.2,   -0.1,    1.2,    1.6,    2.1,    2.5,    1.7,    1.5,    1.7,    1.6,    1.0,    5.6,  999.0,  999.0,  999.0,  999.0,   17.9,    7.4,    1.7,    2.7,    9.6,   -1.4,   -0.6,   -0.6,   -0.9,   -1.1,   -0.5,   -0.6,   -0.6,   -0.4,   -0.5,   -0.6,   -0.5,   -0.2,   -0.7,  999.0,   -2.2,  999.0,  999.0,  999.0,   -0.1,  999.0,  999.0,  999.0,   -0.8,   -0.7,  999.0,  999.0,  999.0,  999.0,  999.0,  999.0
2000/12/20 12:40,  999.0,   -0.0,    0.7,    0.7,   -0.1,   -0.1,   -0.3,   -0.4,   -1.3,   -0.1,    0.4,    1.0,    1.0,    0.6,    5.2,    3.4,    3.9,    7.0,  999.0,  999.0,  -10.2,    9.4,   -6.7,    9.2,   12.1,   -0.8,    7.3,    7.5,   14.2,   10.2,   -0.4,    9.9,    9.9,   -4.0,   -1.1,   -6.5,  999.0,  -16.1,  -18.1,  999.0,  -21.2,   14.5,   19.4,   16.3,   20.9,   24.2,   -7.4,  -21.4,  -26.5,  999.0,  999.0,  -12.0,  999.0,  999.0,  999.0,  999.0,  999.0,  999.0
2000/12/20 12:50,  999.0,   -1.0,   -0.5,   -0.3,    0.1,    0.5,    0.9,    1.6,    1.5,    1.9,    2.3,    1.9,    2.4,    2.3,    3.7,    3.3,  999.0,    8.4,   10.9,   12.4,   16.0,   18.4,   19.3,   21.7,   22.5,   21.6,   22.9,   22.3,   22.6,  999.0,  999.0,  999.0,  999.0,    0.4,  999.0,  999.0,   18.1,  999.0,  999.0,   24.2,   24.5,   24.7,   17.4,   24.0,   23.2,   22.9,    4.4,   11.8,   19.5,   27.4,  999.0,  999.0,  999.0,   19.5,  999.0,  999.0,  999.0,    2.8
2000/12/20 13:00,  999.0,    0.7,    0.2,   -0.0,   -0.5,   -0.3,    0.1,    0.9,    1.1,    1.5,    2.4,    2.6,    2.1,    2.0,    1.4,  999.0,   -1.3,  999.0,  999.0,  999.0,  999.0,    5.1,  999.0,    0.5,    0.8,    0.5,    0.5,    0.4,   12.9,    0.9,    0.9,  999.0,  999.0,  999.0,  999.0,  999.0,  999.0,  999.0,  999.0,    0.6,  999.0,  999.0,    0.6,  999.0,    0.3,   21.5,    1.1,   21.1,   21.2,   12.0,    0.8,    0.8,    0.9,    1.0,    7.0,    0.7,    1.6,    0.4
2000/12/20 13:10,  999.0,   -1.3,    1.5,    1.3,    1.0,    0.4,    0.5,    0.6,    1.2,    0.2,    0.5,    1.0,    1.0,   -2.9,  999.0,    1.4,  999.0,  999.0,  999.0,  999.0,    1.4,    3.9,    0.6,    0.7,   11.1,   11.1,   10.8,    0.8,   10.9,    1.7,    1.0,    0.9,    0.7,    0.3,    0.8,   -0.1,    0.5,    0.8,    0.7,    0.4,    1.2,    0.6,    0.7,    0.8,    0.4,    0.8,    0.7,    1.1,    0.9,    0.9,    0.7,    0.7,    0.8,    0.6,    0.7,    0.7,   -0.1,    0.8
2000/12/20 13:20,  999.0,    0.4,    0.5,   -0.3,    0.3,    0.5,    0.0,    0.8,    0.7,    2.2,    0.1,    0.5,    1.3,    1.5,   -1.2,  999.0,  999.0,  999.0,  999.0,  999.0,    1.8,    5.1,    6.0,   12.2,    0.4,  999.0,   21.0,   11.1,  999.0,    0.2,   12.0,    0.9,   25.4,    3.2,    0.8,    1.0,   14.1,    4.7,    0.9,    0.5,    0.6,    0.6,    0.8,    0.3,    0.5,    1.1,    0.6,    1.1,    0.7,    0.7,    0.8,    0.8,    0.8,    0.9,    0.8,    0.9,    0.9,    0.3
2000/12/20 13:30,  999.0,    1.1,    1.0,    1.8,    1.8,    0.9,    0.2,    0.1,    0.8,    1.2,    1.4,    2.6,    2.0,    2.0,    1.5,   -0.2,  999.0,  999.0,  999.0,  999.0,  999.0,  999.0,    1.0,    0.6,    1.1,   -0.1,    0.7,    0.7,    0.6,    0.5,    0.8,   -6.2,    1.1,    1.1,    0.7,    0.8,    0.4,    0.7,    0.6,    0.7,    0.9,    0.9,   -6.6,    0.9,    0.8,   -6.2,    1.1,  -10.3,  -10.4,    0.8,    1.0,    0.4,   -6.4,    0.9,    0.5,    0.8,    0.8,    0.9
2000/12/20 13:40,  999.0,   -0.6,   -1.6,   -1.3,    0.4,    5.9,   10.4,    4.2,    7.9,    1.5,    4.2,    4.7,    8.1,    2.0,   21.6,   13.4,   17.8,  999.0,  999.0,   10.2,    8.6,    6.5,    3.6,    2.0,    1.2,   10.3,    0.7,    0.7,    0.3,    0.8,    8.6,    2.3,    6.4,    0.7,   13.8,    0.6,    0.4,    0.5,    0.9,    0.7,    0.8,   11.0,    7.2,    4.1,    6.2,    9.9,    1.9,    5.0,    9.4,    0.8,    0.9,    0.6,   12.0,    0.5,    0.8,    7.7,    0.9,    0.9
2000/12/20 13:50,  999.0,  999.0,    3.6,    3.9,    2.7,    0.6,   -0.2,    0.1,   -0.3,   -0.5,    2.3,    2.8,   22.7,   22.9,   22.4,   -0.5,   23.5,  -27.2,   13.5,  -10.9,   -3.2,    0.6,    0.6,    4.8,   -1.1,  999.0,   -0.4,   -0.3,    0.1,   -0.0,    0.2,   -0.3,   -0.8,   -0.1,    7.4,   14.0,   -1.2,  999.0,   -1.4,   -1.2,  999.0,   -0.9,   -0.5,   -8.5,   -0.8,   -0.6,   20.9,  999.0,   -0.8,   -1.2,  999.0,  999.0,  999.0,  999.0,  999.0,   -0.6,  999.0,    5.3
2000/12/20 14:00,  999.0,    1.2,    3.9,    1.5,    1.5,    1.2,    0.8,    0.8,    1.4,    1.6,    1.8,    1.9,    3.5,   16.1,   23.5,  999.0,  999.0,  999.0,  999.0,  999.0,  999.0,    0.6,    2.2,   21.1,    9.6,    0.5,    0.6,    0.5,   12.1,    7.0,    9.7,  999.0,   16.0,   19.0,   22.1,   25.1,   28.5,  999.0,  999.0,  999.0,  999.0,  999.0,  999.0,  999.0,  999.0,  999.0,  999.0,  999.0,  999.0,  999.0,  999.0,  999.0,  999.0,  999.0,  999.0,  999.0,  999.0,  999.0
2000/12/20 14:10,  999.0,    1.9,    1.3,    1.7,    2.2,    1.9,    1.5,    1.1,    0.8,    1.7,    2.4,    2.4,    1.8,    2.5,   -3.1,  999.0,  999.0,  999.0,  999.0,    0.5,    0.2,    0.7,    0.8,    0.1,    1.0,    1.1,    0.9,    0.7,    0.9,    1.0,    0.9,    0.8,  999.0,    0.4,    0.6,    1.5,    0.8,    0.8,    0.5,    0.7,    0.9,    0.9,    0.3,    0.3,    1.5,  999.0,  999.0,    0.7,    1.0,    0.9,    2.4,  999.0,   15.3,  999.0,   21.6,   21.4,   20.9,   21.7
2000/12/20 14:20,  999.0,    1.9,    1.2,    0.6,    1.7,    1.6,    1.3,    1.6,    2.3,    2.7,    2.8,    3.0,    2.5,    1.5,   -0.4,  999.0,  999.0,  999.0,  999.0,   10.2,    8.3,  999.0,  999.0,  999.0,  999.0,  999.0,  999.0,  999.0,  999.0,  999.0,    0.8,  999.0,  999.0,    4.2,  999.0,   12.2,  999.0,  999.0,  999.0,  999.0,  999.0,  999.0,  999.0,  999.0,  999.0,  999.0,  999.0,  999.0,  999.0,  999.0,  999.0,  999.0,  999.0,  999.0,  999.0,  999.0,  999.0,  999.0
2000/12/20 14:30,  999.0,    3.2,    5.7,    3.4,    3.0,    2.9,    1.4,    2.5,    2.1,    2.5,    2.2,    3.3,   11.7,    8.4,   17.7,   28.5,   30.0,   25.8,   25.1,  999.0,  999.0,  999.0,  999.0,  999.0,  999.0,   22.5,   22.2,  999.0,  999.0,  999.0,  999.0,  999.0,  999.0,  999.0,  999.0,  999.0,  999.0,  999.0,  999.0,  999.0,  999.0,  999.0,  999.0,  999.0,  999.0,  999.0,  999.0,  999.0,   22.0,  999.0,  999.0,  999.0,  999.0,  999.0,  999.0,  999.0,  999.0,  999.0
2000/12/20 14:40,  999.0,    1.2,    1.0,    1.8,    0.9,    0.7,    0.5,    1.0,    1.8,    2.4,    3.7,    4.3,    7.5,    5.8,  999.0,  999.0,    9.2,  999.0,  999.0,  999.0,  999.0,    0.7,   12.6,    0.8,    1.0,  999.0,  999.0,    1.1,    0.7,   21.3,   10.7,   15.2,   11.6,   18.7,    5.3,   14.4,   10.8,    1.1,   26.2,  -18.7,    7.3,   11.4,  999.0,   12.4,   -5.9,   -7.9,   -5.2,  999.0,   13.0,   16.2,   19.0,  999.0,   24.6,  999.0,  999.0,  999.0,  999.0,  -14.8
2000/12/20 14:50,  999.0,    0.9,    2.0,    1.4,    0.3,    1.1,    1.5,   -1.0,   -2.7,    5.4,   21.1,   10.4,   20.5,   16.3,    3.7,    0.8,    0.7,    0.9,    0.7,    0.7,    0.8,    0.8,    0.6,    0.8,    0.8,    0.8,    0.6,    0.8,    0.9,    0.9,    1.0,    0.9,    0.8,    1.9,    5.4,    6.5,   10.3,   14.2,  999.0,   21.6,   24.7,   28.9,  999.0,  999.0,  999.0,  999.0,  999.0,  999.0,  999.0,  999.0,  999.0,  999.0,  999.0,  999.0,  999.0,  999.0,  999.0,  999.0
2000/12/20 15:00,  999.0,  -10.9,   -9.6,   -0.2,   -2.1,   -2.8,   -3.0,   -1.4,   -3.2,   -2.2,   -7.0,   -4.3,   -2.1,  999.0,    1.0,    0.4,    0.4,    0.8,    1.3,    0.7,    0.6,    0.5,    0.6,    1.1,    0.5,    0.4,    0.7,    1.0,    0.6,    0.6,    0.6,    3.8,    6.8,    3.9,   12.6,  999.0,    3.6,  999.0,    8.1,   15.1,   15.1,   15.2,    8.9,    3.9,   -9.1,   12.1,  999.0,   12.3,    8.7,  999.0,  999.0,  999.0,  999.0,  999.0,   -0.7,   -0.3,  999.0,  -10.2
2000/12/20 15:10,  -14.8,   -7.4,   -5.5,   -9.1,   -8.4,   -7.6,  -13.1,  -11.7,   -8.8,   -4.1,   -4.8,  -16.9,   -8.9,  -17.5,    0.8,    1.0,   -0.3,    0.6,    0.7,    0.5,    1.0,    0.5,    0.5,    0.7,    1.2,    0.9,    0.8,    0.6,    1.1,    0.6,    0.7,    0.6,    1.0,    1.0,    1.5,    0.7,    3.2,    4.1,   10.0,    1.1,    7.2,    0.5,    9.4,   10.1,  999.0,   23.7,   13.0,   27.6,   29.5,    9.3,   15.4,   21.2,   21.0,   21.5,   21.3,   21.0,  999.0,   21.5
2000/12/20 15:20,  -20.1,  -19.9,    1.5,   -0.5,   -3.9,   -3.0,   -3.0,   -3.0,   -5.4,    5.9,    6.1,    7.1,   20.1,  999.0,    1.8,   -3.5,    0.8,    0.9,  999.0,  999.0,  -18.8,   29.3,  999.0,    0.8,   -9.7,   -5.1,   -8.9,   -4.8,    1.0,  999.0,   10.5,   20.4,  999.0,   20.2,  999.0,   -0.3,  999.0,  999.0,   10.8,  999.0,  -19.7,   -3.3,   -1.4,    0.9,   -2.0,    1.0,    2.7,  -20.4,    0.9,    0.6,  -10.2,    0.5,  999.0,    0.8,  -19.9,  999.0,  -10.2,  999.0
2000/12/20 15:30,  999.0,   -4.3,    1.1,    3.1,    3.4,    2.6,    2.3,    0.8,    0.1,    0.2,   -0.1,    1.2,    1.4,    2.1,   -3.5,   -4.6,  999.0,  999.0,  -13.7,    1.4,   -8.1,   -8.0,    0.7,   -5.8,    0.7,  999.0,    1.0,    0.8,    0.9,    5.7,    1.2,    0.8,    0.4,    1.2,    0.5,    0.6,    7.7,   14.7,    4.9,  999.0,  -18.3,  -18.2,  -18.4,  999.0,   13.1,   16.1,  999.0,  999.0,   26.8,  999.0,  999.0,   19.8,    9.3,    0.7,  999.0,  999.0,    1.1,   22.3
2000/12/20 15:40,  999.0,    1.1,    1.8,    2.1,    0.9,    0.5,   -0.2,    1.2,    1.7,    2.0,    1.4,    0.7,    1.9,   -8.4,  -15.0,  -18.6,    1.7,  -13.8,   -3.4,  -15.0,    0.7,  -20.4,   -1.6,  -13.0,    1.3,   -1.2,  -10.5,    0.7,  -10.4,   -0.9,  999.0,  999.0,  -12.8,  999.0,  999.0,   -1.8,   -7.1,  999.0,  999.0,    6.1,   -8.1,  -12.3,   -6.3,  -10.9,  999.0,    8.4,  -14.3,   -6.8,    0.7,   -7.6,    8.5,   27.8,  999.0,   20.8,   21.2,   19.6,   -0.7,   20.5
2000/12/20 15:50,  999.0,    0.6,    0.6,    0.8,    2.4,    1.7,    1.5,    1.8,    1.9,    2.1,    2.0,   -0.3,  999.0,  999.0,  -22.0,  -12.4,  999.0,  999.0,  999.0,  -14.3,    7.9,  -12.4,  999.0,   -9.7,   -8.7,  999.0,   -5.9,   -0.7,  999.0,  -22.7,  -10.5,    4.6,  -20.5,  999.0,   -5.3,  999.0,    4.7,    0.9,  999.0,    1.1,  -16.0,  -16.7,  -17.2,  -16.7,  -13.7,  -17.1,   -8.2,   -9.5,  -18.4,  -10.8,  999.0,  -21.0,  -20.5,    0.7,    0.7,    1.2,    1.0,  999.0
2000/12/20 16:00,  999.0,    0.3,    0.6,    1.0,    1.9,    2.8,    3.5,    4.1,    3.9,    3.8,    5.5,    5.6,    2.5,    1.5,   12.4,   12.0,   21.4,   11.9,   12.4,    1.3,    0.7,  999.0,   -0.0,  -11.8,   22.6,    0.5,  -11.0,  -17.1,  -17.2,   -9.6,  999.0,  999.0,  999.0,  999.0,  999.0,  999.0,    0.4,    0.0,  -17.5,  -18.4,  -17.6,  -18.2,  -18.5,  -18.4,  -18.0,   -3.6,   -9.5,  999.0,  999.0,  -16.6,   25.6,  999.0,  999.0,   19.3,    2.2,   21.4,   21.1,    2.4
2000/12/20 16:10,  999.0,    1.7,    1.2,    2.0,    2.3,    3.2,    3.0,    3.2,    3.5,    3.2,    2.7,    2.8,    2.7,    2.1,    1.3,   -1.8,  999.0,  999.0,    1.1,  999.0,  -15.2,  999.0,  999.0,  -20.0,  -18.4,  -16.6,  -17.7,  -19.8,  -20.8,  -21.2,  -19.6,  999.0,  999.0,  999.0,  999.0,  999.0,  999.0,  999.0,  -17.8,  -17.3,  -16.7,  -16.3,  -18.3,  -18.1,  -17.5,  -17.3,  -16.2,  999.0,  999.0,  999.0,  999.0,  999.0,    0.3,    0.6,    0.6,    0.6,    0.4,    0.8
2000/12/20 16:20,  999.0,   -0.0,    2.0,    1.7,    1.6,    1.5,    1.4,    1.9,    1.7,    2.3,    1.9,    2.4,    3.0,    0.7,  999.0,  999.0,   17.3,  999.0,   -8.9,  999.0,    3.7,    0.7,  999.0,    0.8,  999.0,    0.8,    0.6,    0.6,    0.6,    0.9,    0.9,  999.0,    0.5,  -20.8,  999.0,  -20.2,  999.0,  -14.1,  -20.6,  -20.5,    0.7,    0.6,    2.2,   -6.6,  -11.4,    8.0,  -12.4,  -20.9,  -20.8,  -20.5,  -10.1,  999.0,  -10.1,    0.4,  -10.0,    0.8,    7.9,    0.3
2000/12/20 16:30,  999.0,   -0.0,    0.3,    1.1,    1.0,    0.5,    0.5,    2.3,    3.1,    2.4,    2.7,    2.9,    2.8,    3.2,    3.9,    2.5,   -0.3,   16.3,   14.0,   10.8,    4.1,    2.3,    0.6,    1.0,    0.9,   -9.5,   -5.8,    3.8,    1.0,   11.8,    7.3,    0.3,   -2.6,    1.8,    2.6,    0.3,    3.1,  -14.0,    0.9,    0.6,   -6.1,    0.8,  -10.2,   -1.0,    1.8,    0.4,    0.5,   -6.5,    0.7,    0.9,    0.8,   -6.6,    1.2,   -6.1,    0.5,    0.5,    0.5,    0.6
2000/12/20 16:40,  999.0,   -0.4,    0.5,    1.7,    2.4,    2.6,    2.5,   -0.3,   -3.3,    0.2,    1.4,    0.6,    0.7,   -1.0,    1.0,    2.5,   -1.3,  999.0,  999.0,  999.0,  999.0,    0.5,    4.5,    3.2,    2.7,    1.4,    0.5,    0.8,    0.8,    0.9,    0.6,    0.9,    0.8,    0.7,    0.7,    0.6,    0.3,    0.9,    0.8,    0.6,    0.9,    0.6,    0.8,    0.4,    0.3,    0.8,    0.5,    0.7,    0.9,    0.6,    1.1,    0.6,    1.0,    0.8,    0.6,    0.6,    0.8,    1.2
2000/12/20 16:50,  999.0,    0.2,    0.7,    1.1,    0.8,    0.9,    1.4,    1.8,    2.6,    3.7,    3.7,    4.6,    4.4,    3.6,    2.8,  999.0,  999.0,  999.0,  999.0,    9.4,    7.5,    4.5,    2.2,    1.1,    0.6,    0.8,    0.2,   11.0,    1.5,   10.0,    1.6,    9.7,   11.2,  999.0,   -2.6,   -3.8,    0.8,   -5.3,    4.5,   -3.8,    4.2,    7.5,  999.0,    0.6,    0.5,    0.5,    8.5,    7.4,    3.7,    6.5,   18.2,    0.5,    0.8,    0.7,    0.9,  999.0,    1.1,    1.4
2000/12/20 17:00,  999.0,    0.2,    0.2,    0.6,    0.6,    0.2,    2.0,    4.3,    7.0,    9.8,   10.0,   10.4,   13.6,    9.1,   -1.2,   -8.8,  999.0,  999.0,  999.0,    0.8,    2.3,    1.5,    0.9,    0.5,    0.6,    0.3,    1.0,    0.7,    0.5,    0.6,    0.7,    0.4,    0.5,    0.7,    0.8,    0.7,    0.7,    0.9,    0.9,    0.7,    0.8,    0.9,    0.8,    0.8,    1.0,    0.3,    0.8,    1.1,    2.6,    9.1,    7.1,    8.9,    7.3,   12.4,    9.4,    0.7,  999.0,    1.2
2000/12/20 17:10,  999.0,   -0.4,    0.9,    1.7,    2.0,    1.2,    1.0,    2.6,    3.0,    3.6,    3.7,    3.1,    2.8,    2.4,    3.1,  999.0,  999.0,  999.0,  999.0,    8.5,    5.6,    3.5,    2.5,   13.1,   12.4,   20.4,    1.2,    2.0,    0.7,  999.0,   17.0,    2.3,   17.3,    5.8,   15.8,   21.7,  999.0,   13.9,   21.4,   27.6,  999.0,  999.0,   16.5,    6.9,  999.0,   14.8,   23.4,  999.0,  999.0,  999.0,   25.0,  999.0,   19.0,    1.5,   11.4,   14.5,   11.2,   20.4
2000/12/20 17:20,  999.0,   -0.5,    0.6,    0.6,    0.9,    0.7,    0.3,    1.3,    3.6,    3.9,    4.8,    7.2,    8.0,  999.0,    3.7,    4.2,  999.0,  999.0,  999.0,  999.0,  999.0,  999.0,  999.0,  999.0,  999.0,  999.0,  999.0,  999.0,  999.0,  999.0,  999.0,  999.0,  999.0,  999.0,  999.0,   27.0,    7.7,    2.5,    5.0,  999.0,   10.5,   12.3,   14.7,   16.9,   19.3,   20.2,   17.4,   14.6,  999.0,    8.2,    5.8,    3.0,    0.2,    0.2,    0.7,    1.4,  999.0,    0.2
2000/12/20 17:30,  999.0,    1.4,    1.3,    2.1,    2.2,    1.6,    2.0,    2.4,    3.8,    4.6,    4.9,   12.8,  999.0,   18.8,   16.1,    0.9,    0.8,    0.6,    0.1,    0.8,    1.0,   15.0,    5.2,    5.7,    1.3,   10.2,    0.7,    1.1,    0.9,    0.8,    0.4,    0.3,    0.8,    7.5,    0.6,    3.4,    0.9,   -3.5,    1.0,   -1.5,    0.8,    4.3,  -10.3,   -0.6,    1.5,    0.5,    0.5,    7.5,    0.4,    2.0,    0.9,    1.4,  999.0,    1.0,  -20.4,  999.0,    8.0,   -4.6
2000/12/20 17:40,  999.0,    1.2,    1.3,    1.3,    8.6,    2.0,    1.5,    9.4,    9.8,   15.1,   11.9,   21.2,   21.1,   21.5,   20.4,   18.5,   16.4,   13.6,   11.7,   10.1,    8.0,    5.7,    3.9,    0.4,   -8.6,    1.9,    1.5,    1.1,    0.6,    0.6,    0.9,    0.9,    0.5,    0.9,    1.0,    0.8,   -7.6,    0.4,    0.6,   -0.8,  -11.1,    0.5,    0.7,    0.5,    0.5,   -5.1,   -8.8,   -1.8,    0.5,   -2.3,   -8.1,    0.7,    0.3,    0.6,  999.0,    0.8,  -21.3,   -6.2
2000/12/20 17:50,  999.0,    2.2,    1.3,    0.7,    0.6,    0.5,    0.3,    7.6,   12.2,   13.0,   16.0,    0.6,   15.2,   15.2,   15.0,   13.9,   10.0,   15.5,   13.8,   11.0,    8.0,  999.0,  999.0,    0.6,    0.5,    0.8,    0.3,    1.0,    0.7,    0.7,    1.0,    0.9,    0.7,   14.4,   11.7,    7.7,   10.8,    4.9,    9.1,    1.0,    0.9,    0.8,    0.8,    1.0,    8.5,    2.5,  999.0,    0.4,    3.3,    7.5,    7.3,    7.7,   12.3,    0.7,    0.8,    1.0,    0.4,    0.9
2000/12/20 18:00,  999.0,    1.0,    0.9,    1.3,    1.0,    1.1,    0.9,    0.9,  999.0,    3.4,    3.5,    5.0,  999.0,   21.1,    3.5,  999.0,  999.0,   10.6,   21.1,   12.8,   16.5,    3.2,    8.1,   -0.0,    1.1,    9.6,    0.7,    1.1,    1.3,    1.1,    0.9,    0.5,    0.5,  999.0,    0.6,    1.1,    0.4,  999.0,    0.5,    0.9,    0.6,    3.5,    0.4,    0.4,   -0.2,   -0.5,    0.3,   -9.2,    1.5,    0.9,    0.7,    0.2,    1.2,    0.4,    0.7,    0.9,  999.0,    1.7
2000/12/20 18:10,  999.0,  999.0,  999.0,    4.9,    0.9,    0.6,    0.4,    2.2,    2.4,  999.0,  999.0,  999.0,  999.0,    4.7,    4.7,  999.0,   18.8,   16.4,   15.2,   10.3,   14.8,   10.3,    7.3,    7.4,    5.4,  999.0,    4.2,    5.5,    2.2,    2.1,    1.2,    1.1,    1.6,    0.6,    1.0,    0.7,    1.3,    0.7,    0.6,    0.8,    0.5,    0.3,    0.9,  999.0,    0.7,    0.5,  999.0,    0.7,    0.9,    0.9,    0.6,    0.1,    0.5,   -0.0,    0.5,    0.4,    0.6,    0.7
2000/12/20 18:20,  999.0,    1.6,    1.7,    5.3,    0.7,    4.4,    3.9,    1.7,    3.0,    9.1,    0.6,  999.0,  999.0,    6.7,  999.0,    8.3,    7.8,    6.8,    2.0,   11.0,    4.2,   -0.2,    6.4,    5.6,   -1.1,   -1.9,   -8.9,   -8.9,   -9.1,  -18.2,    0.3,  999.0,    0.7,    0.8,    0.8,    1.0,    0.6,    0.6,    0.5,    0.8,    0.3,    0.6,    0.9,    0.1,    0.5,    1.2,    1.2,    1.0,    0.3,  999.0,    0.9,    0.7,    1.3,  -10.5,    0.9,    0.7,    0.6,   -0.1
2000/12/20 18:30,  999.0,  999.0,  999.0,    2.7,    1.9,    0.9,    1.2,    1.7,    1.5,    0.1,  999.0,  999.0,  999.0,  999.0,  999.0,  999.0,   17.9,   15.6,   13.3,   12.3,   10.8,  999.0,    6.9,    4.5,    2.0,    0.9,    0.9,    0.2,    0.6,  999.0,    0.6,    0.5,    1.0,    0.8,    0.6,  999.0,    0.2,    0.7,    0.5,    0.2,    1.0,    0.6,    0.6,    1.0,    0.6,    0.9,    0.5,    0.8,    0.7,    1.0,    0.9,    1.3,   -0.1,    0.8,    0.1,    1.0,    0.8,    0.7
2000/12/20 18:40,  999.0,  999.0,    2.5,   -0.1,    1.1,    0.5,    0.6,    3.3,    3.8,    3.3,  999.0,    2.7,    1.8,    1.9,  999.0,  999.0,  999.0,  999.0,   11.6,   11.0,    9.1,    7.5,    4.8,    2.7,    1.2,    0.9,  -10.1,  -18.3,    0.8,    0.7,   -6.4,  999.0,    0.5,    0.3,    0.3,    0.5,   -0.2,    0.4,    0.6,    0.5,   -0.0,   -6.6,    0.8,  999.0,    1.0,    0.7,    0.5,   -0.1,    0.8,    0.6,    0.9,    0.5,    0.8,    0.8,  999.0,   -0.2,    1.3,    0.9
2000/12/20 18:50,  999.0,  999.0,  999.0,  999.0,    1.1,    3.0,    3.6,    4.5,    3.9,    4.9,    3.9,    4.3,    3.9,    3.3,    2.4,  999.0,  999.0,   -2.9,   -4.4,    3.9,    0.6,   -1.6,   -4.0,   -6.8,  -13.4,   -1.8,  -12.4,    0.4,    0.6,    0.9,  999.0,  999.0,    0.4,  999.0,  999.0,    0.9,   -9.3,  999.0,    0.9,    0.6,  999.0,    1.2,  999.0,  999.0,    0.8,    1.2,    0.6,  999.0,    0.7,    1.1,    0.9,   -0.1,    0.3,    0.6,    0.8,  -10.3,    0.2,    0.7
2000/12/20 19:00,  999.0,  999.0,  999.0,  999.0,    0.2,    2.7,    2.0,    2.9,    4.4,    5.4,    5.1,    4.7,    3.2,    2.6,    3.0,  999.0,    2.4,  999.0,   -1.5,   -1.0,   -2.7,   -4.3,   -6.5,   -8.6,  -10.1,  -10.8,  -11.7,  999.0,  999.0,  999.0,  999.0,  999.0,  999.0,  999.0,  999.0,  999.0,  999.0,  999.0,  999.0,  999.0,  999.0,    0.7,    1.5,  999.0,    1.1,    1.2,    0.6,    0.6,    0.7,    1.2,    0.9,    1.3,    0.9,  999.0,    1.0,    0.8,    0.9,    0.7
2000/12/20 19:10,  999.0,  999.0,  999.0,    5.4,  999.0,    6.4,    4.3,    3.8,    3.5,    4.1,    1.4,    4.8,    3.9,    3.1,    2.5,    0.7,    1.5,    0.7,  999.0,  999.0,   -4.8,   -4.8,   -2.7,   -5.0,  999.0,   -6.6,  999.0,  999.0,  999.0,  999.0,  -10.0,  999.0,  999.0,  999.0,  999.0,  999.0,  999.0,  999.0,    0.6,  999.0,    1.3,    1.0,    0.7,  999.0,    0.7,    0.5,    1.2,    1.4,    0.5,    0.4,    1.1,    0.6,    1.2,   -0.2,    1.2,    0.2,    0.0,    0.5
2000/12/20 19:20,  999.0,  999.0,  999.0,    2.4,    3.0,    5.6,    6.3,    6.8,    4.4,    4.4,  999.0,  999.0,   -3.9,    7.8,  999.0,    2.1,    3.1,    1.1,   -0.0,  999.0,   -1.7,   -3.5,   -6.6,   -6.2,   -8.0,  -13.1,  -21.0,  999.0,  999.0,  999.0,  999.0,  999.0,  999.0,  999.0,  999.0,  999.0,  999.0,  999.0,  999.0,    5.2,    1.0,    5.0,    3.3,    3.2,    4.4,    3.4,    6.6,    0.2,    0.6,    2.1,    1.6,    1.1,    0.4,    2.1,    0.8,    0.4,    0.8,    0.9
2000/12/20 19:30,  999.0,  999.0,  999.0,  999.0,    3.0,    4.8,  999.0,    2.6,    5.1,    6.0,    4.5,    0.7,    4.7,   -2.0,    5.9,  999.0,  999.0,  999.0,    0.4,   -3.9,  999.0,  999.0,   -5.5,   -7.4,   -7.5,  999.0,  999.0,  999.0,  999.0,  999.0,  999.0,  999.0,  999.0,  999.0,  999.0,  999.0,  999.0,  999.0,  999.0,  999.0,  999.0,    2.9,  999.0,  999.0,  999.0,    0.7,  999.0,    0.9,    0.6,  999.0,    0.4,  999.0,    1.2,    0.6,    0.6,  999.0,    0.9,    1.2
2000/12/20 19:40,  999.0,    2.4,    1.4,    0.6,    1.8,    1.5,    4.0,    5.8,    2.8,  999.0,   -2.7,    2.8,    3.4,    2.3,    1.3,    0.4,    0.5,    0.1,    1.2,    1.2,  999.0,   -6.5,   -2.7,   -3.7,   -3.6,   -6.0,   -2.9,   -4.0,  999.0,  999.0,  999.0,  999.0,  999.0,  999.0,  999.0,  999.0,  999.0,  999.0,  999.0,  999.0,  999.0,    9.6,    9.9,    9.5,  999.0,    8.3,    7.3,  999.0,  999.0,    5.3,    5.5,    4.5,  999.0,  999.0,  999.0,  999.0,  999.0,    2.2
2000/12/20 19:50,  999.0,  999.0,    6.4,    0.1,    2.8,    5.0,    1.0,    3.5,    2.7,    3.3,    2.6,    4.5,    4.8,    3.5,    1.6,    1.6,    1.2,    0.4,    0.4,   -0.1,  999.0,  999.0,   -2.4,   -2.0,   -3.3,   -2.5,   -2.3,  999.0,  999.0,  999.0,   -4.6,  999.0,  999.0,  999.0,   -6.7,  999.0,  999.0,  999.0,  999.0,  999.0,   11.9,  999.0,  999.0,    7.9,    6.9,  999.0,    6.0,  999.0,    7.7,    7.4,  999.0,    6.0,    3.7,    2.8,  999.0,    2.7,    0.9,    0.2
2000/12/20 20:00,  999.0,  999.0,   10.5,  999.0,    2.4,    7.9,    1.6,  999.0,   -0.5,    2.8,    4.4,    4.8,    4.0,    2.1,    2.1,    1.6,    0.5,    0.6,    0.7,    0.0,  999.0,  999.0,   -3.8,   -5.3,  999.0,   -3.4,  999.0,  999.0,  999.0,  999.0,  999.0,  999.0,  999.0,  999.0,  999.0,    9.6,    9.5,    7.9,    8.1,    8.2,    8.0,    7.1,    6.5,    4.2,  999.0,    4.5,    5.1,    3.0,    1.1,    2.6,    0.1,    0.5,    0.7,  999.0,    1.0,  999.0,  999.0,  999.0
2000/12/20 20:10,  999.0,  999.0,    1.9,    2.6,    4.6,   10.1,    3.3,    1.8,    3.7,    4.1,    3.8,    4.0,    5.4,    3.5,    2.4,    1.8,    1.0,    0.8,   -0.4,   -0.7,  999.0,  999.0,  999.0,   -2.1,  999.0,  999.0,  999.0,  999.0,  999.0,  999.0,  999.0,  999.0,  999.0,  999.0,  999.0,  999.0,  999.0,  999.0,  999.0,  999.0,  999.0,  999.0,  999.0,  999.0,  999.0,  999.0,  999.0,  999.0,  999.0,  999.0,  999.0,  999.0,  999.0,  999.0,  999.0,  999.0,  999.0,  999.0
2000/12/20 20:20,  999.0,  999.0,    8.2,    2.0,    3.4,    3.3,    3.3,    3.1,    4.6,    7.1,    2.8,    2.0,    2.9,    2.4,    1.9,    1.0,    0.9,    0.4,   -0.2,    0.4,   -3.4,  999.0,   -5.0,   -5.7,   -5.3,   -7.5,   -7.8,   -9.1,   -9.4,  999.0,  999.0,  999.0,  999.0,  999.0,  999.0,  999.0,  999.0,  999.0,  999.0,  999.0,  999.0,  999.0,  999.0,  999.0,  -19.0,  999.0,  -20.0,    2.4,  999.0,    0.6,    0.2,    1.3,    1.3,    0.6,    0.8,    1.3,    0.5,  999.0
2000/12/20 20:30,  999.0,  999.0,  999.0,    3.8,    1.2,    1.4,    0.7,    1.0,    3.7,    8.8,   11.7,    4.1,    1.4,    1.1,   -0.8,   -0.6,   -1.0,   -0.3,   -1.3,   -4.6,  999.0,   -0.4,   -3.3,  999.0,   -5.9,   -8.5,   -8.5,   -9.8,  -10.9,  999.0,  999.0,  999.0,  999.0,  999.0,  999.0,  999.0,  999.0,  999.0,  999.0,  999.0,  999.0,  999.0,    0.4,    0.1,  999.0,  999.0,    0.1,    1.1,    0.8,    1.5,    0.9,    0.9,    0.5,    0.4,    0.7,    0.7,    0.7,  999.0
2000/12/20 20:40,  999.0,   18.1,   12.2,    3.3,    0.7,    2.0,    2.2,    1.4,  999.0,  999.0,  999.0,  999.0,    4.7,    4.4,    4.8,   -1.2,   -1.0,   -1.3,   -1.5,   -1.2,   -2.2,   -2.9,   -3.6,  999.0,   -7.1,   -7.0,   -8.0,   -9.0,   -9.5,  -14.1,  999.0,   -9.7,  999.0,  999.0,  999.0,  999.0,  999.0,  999.0,  999.0,  999.0,  999.0,    2.3,  999.0,    0.9,    0.5,    1.4,    0.8,    0.8,    0.7,    0.5,    0.8,    0.4,    0.6,    0.5,    0.8,    0.6,    1.0,    0.9
2000/12/20 20:50,  999.0,  999.0,  999.0,  999.0,  999.0,  999.0,  999.0,    6.7,    4.4,    7.0,    3.7,    4.7,    4.0,    3.4,   -0.0,   -1.1,   -0.1,    0.1,   -0.7,   -1.1,   -1.3,   -2.6,   -4.3,   -2.3,  999.0,   -4.7,   -8.0,   -7.8,  -11.8,  999.0,  999.0,  999.0,  999.0,  999.0,  999.0,   -7.7,  999.0,  999.0,  999.0,  999.0,  999.0,  999.0,   -1.0,  999.0,    1.1,  999.0,    0.4,    0.1,    0.9,    0.7,    0.5,    0.8,    0.6,  999.0,  999.0,    1.2,    1.1,    0.3
2000/12/20 21:00,  999.0,  999.0,  999.0,    1.6,    1.9,    3.8,    1.5,    5.6,    5.3,    5.9,    4.4,    4.0,    3.4,    3.5,    1.5,    0.8,    0.4,   -0.2,   -0.7,   -1.9,   -2.1,   -4.8,   -6.5,   -8.0,   -6.3,   -8.3,   -8.9,   -9.7,  -12.3,  999.0,  999.0,  999.0,  999.0,  999.0,  999.0,  999.0,  999.0,  999.0,  999.0,  999.0,    0.5,  999.0,    0.6,  999.0,    0.4,    0.4,    0.4,    1.0,  999.0,    0.5,    0.5,    0.8,    0.8,  999.0,    1.0,  999.0,    0.4,    0.4
2000/12/20 21:10,  999.0,  999.0,  999.0,    0.8,    3.9,    3.4,    1.0,    2.5,    4.0,    3.0,    3.1,    2.5,    1.6,    1.2,    1.0,   -2.9,   -0.6,   -1.1,   -2.2,   -3.6,   -4.8,   -6.4,   -7.7,   -8.4,  -10.1,   -9.1,  -10.4,  -11.9,  999.0,  999.0,  999.0,  999.0,  999.0,  999.0,  999.0,  999.0,  999.0,  999.0,    0.7,    0.4,   -0.0,    1.2,  999.0,    1.2,    0.5,  999.0,    1.2,    0.9,    1.4,   -0.1,    1.3,    0.7,    1.8,    1.1,    0.5,    0.8,    1.0,    0.2
2000/12/20 21:20,  999.0,   20.8,   21.0,  999.0,    4.1,    2.5,    6.1,    6.9,    3.3,    6.7,    4.6,    3.8,    1.4,    2.4,    0.7,    0.3,   -0.5,   -1.8,   -2.8,   -6.8,   -3.3,   -5.3,   -6.9,   -6.5,   -7.8,  -10.2,  -10.3,  -10.5,   -9.7,   -8.7,  999.0,  999.0,  999.0,  999.0,  999.0,  999.0,  999.0,    4.1,    1.8,    3.6,    0.9,    1.4,    1.3,    1.3,    1.5,    0.5,    1.1,    0.8,    0.7,    1.0,    0.4,    1.2,    1.0,    0.6,    0.8,    0.1,    0.2,    0.6
2000/12/20 21:30,  999.0,  999.0,  999.0,  999.0,    5.6,    3.7,    4.8,    8.7,    5.6,    6.2,    4.5,    3.4,    0.7,    0.5,   -0.2,   -0.3,   -1.0,   -1.4,   -2.1,   -3.8,  999.0,   -6.4,  999.0,  999.0,  999.0,  -10.0,  -10.6,  -11.1,  -10.0,  999.0,  999.0,  999.0,  999.0,  999.0,  999.0,    0.6,    1.8,   -2.4,    0.4,    0.9,  999.0,    0.5,    0.9,    0.5,    0.9,    0.2,  999.0,    0.6,    0.4,  999.0,    1.3,    0.9,  999.0,    0.8,    0.7,  999.0,    0.5,    0.8
2000/12/20 21:40,  999.0,    1.7,    2.0,    4.1,    4.2,    2.6,    4.3,  999.0,    6.4,    5.1,    3.7,    1.5,   -1.1,   -0.8,   -2.0,   -3.3,   -4.8,   -6.6,  -10.7,   -7.4,   -3.6,  999.0,  999.0,  999.0,  -12.0,  -13.2,  -12.7,  -13.4,  -15.1,  -10.9,  999.0,  999.0,  999.0,  999.0,  999.0,  999.0,    1.1,  999.0,   -0.7,    0.1,    0.3,    0.4,  999.0,  999.0,    1.9,  999.0,    1.4,    0.8,    0.6,    4.6,    0.5,    0.6,  999.0,    1.2,    0.8,    0.7,    7.4,  999.0
2000/12/20 21:50,  999.0,  999.0,  999.0,    1.3,    1.4,    1.7,    4.2,  999.0,    5.4,    3.5,    3.0,    1.1,    0.0,   -0.1,   -1.1,   -0.8,   -1.0,   -1.4,   -2.4,   -2.9,   -6.1,  999.0,  999.0,   -7.9,   -9.4,  -10.2,  -11.8,  -10.9,  -10.3,  999.0,  999.0,  999.0,  999.0,  999.0,  -11.1,  999.0,  999.0,  999.0,  999.0,    0.7,  999.0,    0.4,  999.0,    0.7,    1.9,    0.6,    0.7,  999.0,    0.4,    0.1,    0.5,    0.8,    0.1,    0.9,    0.7,    0.7,    1.3,    0.7
2000/12/20 22:00,  999.0,    0.7,    3.2,    4.5,    3.2,    2.5,    1.7,    0.8,    3.4,    3.3,    2.3,    0.4,   -0.3,   -1.5,   -1.2,   -1.2,   -1.1,   -1.6,   -2.2,   -3.3,   -6.2,  999.0,  999.0,   -9.5,   -6.9,  -12.6,  -16.9,  -13.9,  -13.1,  999.0,  999.0,  999.0,  999.0,  999.0,  999.0,  999.0,  999.0,  999.0,  999.0,  999.0,  999.0,  999.0,   -0.3,    0.4,    0.5,    1.0,    0.5,    1.6,    1.1,    0.1,    0.5,    1.2,    0.9,  999.0,    0.8,    0.6,    0.8,    0.9
2000/12/20 22:10,  999.0,  999.0,  999.0,    0.8,    2.3,    2.4,    2.0,  999.0,  999.0,  999.0,    3.2,    1.2,    1.1,   -1.0,   -2.5,   -1.8,   -1.9,   -2.4,   -3.2,   -3.9,   -5.2,  999.0,  999.0,  999.0,   -9.9,   -9.6,   -9.3,  999.0,  999.0,  999.0,  999.0,  999.0,  999.0,  999.0,  999.0,  999.0,    0.8,    0.9,   -0.8,    0.6,    0.8,    1.0,    1.3,  999.0,    1.7,   -0.3,    0.8,    0.1,    0.2,    0.5,    0.8,    0.9,    1.3,    0.9,    1.0,    1.2,    0.5,    0.8
2000/12/20 22:20,  999.0,  999.0,    1.9,    0.2,    1.3,    3.4,    4.6,  999.0,    2.4,    4.0,    3.1,    1.6,   -0.1,   -0.7,   -1.1,   -1.8,   -2.3,   -2.4,   -3.3,   -4.1,   -5.3,   -6.2,   -7.4,   -7.6,   -8.3,  -10.1,   -9.6,  -10.8,  -11.4,  999.0,  999.0,  999.0,  999.0,  999.0,  999.0,  999.0,   -0.1,    0.8,    1.3,    0.6,    0.7,    0.6,    0.5,    0.7,  999.0,    0.7,    0.7,    0.0,    1.0,    0.7,    0.4,    1.1,    0.4,    1.1,    0.3,    1.5,    0.4,    0.2
2000/12/20 22:30,  999.0,  999.0,  999.0,    1.5,    1.7,    3.0,    2.5,    4.8,    4.0,    3.8,    4.4,    1.8,    1.3,   -0.4,   -0.8,   -1.5,   -1.2,   -2.3,   -2.3,   -3.6,   -5.6,   -2.7,   -4.8,   -6.2,   -7.4,   -8.1,  -10.6,  -10.1,  999.0,  999.0,  999.0,  999.0,  999.0,  999.0,  999.0,  999.0,  999.0,  999.0,    0.8,    0.3,    1.1,    0.6,    0.9,    0.8,    0.6,    0.3,    0.2,    0.6,    0.9,    0.5,    0.7,    0.6,    0.4,    0.6,  999.0,  999.0,    0.7,    0.8
2000/12/20 22:40,  999.0,    0.6,  999.0,    0.8,    2.9,    3.6,    3.0,    3.8,    2.7,    4.4,    1.2,    1.5,    1.1,    0.0,   -0.6,   -1.7,   -1.7,   -1.5,   -2.8,   -2.9,   -5.1,  999.0,   -0.6,   -1.2,   -0.8,  999.0,  999.0,   -3.9,   -5.3,    9.8,  999.0,  999.0,  999.0,  999.0,  999.0,  999.0,  999.0,    4.5,  999.0,    1.8,  999.0,  999.0,  999.0,   12.9,    9.1,  999.0,  999.0,  999.0,    1.3,    9.9,  999.0,  999.0,  999.0,    0.5,    0.7,   11.4,   20.8,  999.0
2000/12/20 22:50,  999.0,  999.0,    6.4,    0.3,    2.1,    2.5,    4.0,    3.5,    3.5,    4.7,    4.7,    2.3,    1.5,    0.4,   -1.4,   -0.7,   -0.9,   -0.9,   -1.8,   -4.1,   -6.7,   -7.4,   -7.3,   -8.4,   -8.7,  -10.5,  999.0,  -13.1,  -13.8,  -14.1,  -13.9,  999.0,  999.0,  999.0,  999.0,  999.0,    0.9,    0.9,  999.0,  999.0,    0.9,  999.0,    0.4,    0.4,    0.9,    0.7,    0.8,    1.0,    0.4,    1.0,  999.0,    1.2,    1.0,    0.5,    0.5,    0.5,    0.3,  999.0
2000/12/20 23:00,  999.0,  999.0,    0.9,    1.0,    2.0,    2.2,    2.6,    2.9,    3.4,    4.4,    4.9,    4.0,    1.6,    0.2,   -1.7,   -3.2,   -2.1,   -1.5,   -1.6,   -1.6,   -2.2,   -3.0,   -2.9,   -2.8,   -3.9,   -6.0,   -8.2,   -8.9,   -8.6,  999.0,  999.0,  999.0,  999.0,  999.0,  999.0,  999.0,    0.6,    0.9,    0.7,    0.9,    1.0,    0.7,  999.0,    0.0,    0.9,  999.0,    7.7,    1.0,  999.0,    0.8,    1.3,    0.5,    0.9,    0.5,  999.0,    1.6,  999.0,    0.9
2000/12/20 23:10,  999.0,    0.5,    1.1,    1.2,   -0.4,    1.3,    1.6,    2.0,    2.7,    2.9,    3.4,    2.9,    0.8,    0.0,   -0.7,   -1.4,   -1.1,   -2.3,   -2.4,  999.0,   -1.4,   -1.6,   -0.9,   -0.8,   -1.2,   -1.5,   -0.8,    1.6,  999.0,  999.0,  999.0,  999.0,  999.0,   22.8,   22.4,  999.0,  999.0,  999.0,  999.0,  999.0,  999.0,  999.0,  999.0,  999.0,  999.0,  999.0,  999.0,  999.0,  999.0,  999.0,  999.0,  999.0,  999.0,  999.0,  999.0,  999.0,  999.0,  999.0
2000/12/20 23:20,  999.0,    1.0,    1.5,    0.4,    2.3,    3.7,    2.9,    2.5,    2.1,    2.7,    2.1,    2.5,    1.5,   -0.3,   -1.1,   -1.7,   -2.6,   -1.9,   -3.3,   -6.9,  999.0,  999.0,   -2.4,   -1.6,   -0.8,   -0.2,    1.0,    0.0,    0.1,  999.0,  999.0,  999.0,  999.0,  999.0,  999.0,  999.0,  999.0,  999.0,  999.0,  999.0,  999.0,  999.0,  999.0,  999.0,  999.0,  999.0,  999.0,  999.0,  999.0,  999.0,  999.0,  999.0,  999.0,  999.0,  999.0,  999.0,  999.0,  999.0
2000/12/20 23:30,  999.0,    0.7,    0.5,   -1.9,    0.5,    1.6,   -5.6,    1.7,    0.8,    3.6,    2.7,    1.1,    0.4,    0.2,    0.0,   -0.9,   -1.4,   -2.9,   -6.2,   -4.5,  999.0,   -9.2,   -7.2,  999.0,  999.0,  999.0,  -16.4,  999.0,  999.0,  999.0,  999.0,  999.0,  999.0,  999.0,  999.0,  999.0,  999.0,  999.0,  999.0,  999.0,  999.0,  999.0,  999.0,  999.0,  999.0,  999.0,  999.0,  999.0,  999.0,  999.0,  999.0,  999.0,  999.0,  999.0,  999.0,  999.0,  999.0,  999.0
2000/12/20 23:40,  999.0,   -0.1,    0.7,    1.0,    1.4,    2.7,    1.7,    4.6,    4.6,    4.4,    3.7,    2.4,    1.9,    1.3,   -0.0,   -1.0,   -1.9,   -4.0,   -4.0,   -6.1,   -4.5,  -13.2,   -9.9,  -16.9,  -12.7,  -10.1,    0.6,  999.0,    0.9,    0.5,  999.0,    1.6,  999.0,  999.0,    0.9,    2.7,    6.8,  999.0,   13.9,  999.0,  999.0,  999.0,  999.0,  999.0,  999.0,  999.0,  999.0,  999.0,  999.0,  999.0,  999.0,  999.0,  999.0,  999.0,  999.0,  999.0,  999.0,  999.0
2000/12/20 23:50,  999.0,  999.0,    1.6,   -1.4,    1.7,    2.3,    2.8,    3.4,    3.8,    2.9,    2.4,    2.6,    2.3,    0.8,   -0.1,   -1.9,   -2.1,   -2.4,   -3.2,   -4.4,   -6.5,   -5.8,   -7.6,  -12.5,  -13.7,  999.0,  999.0,  999.0,  999.0,  999.0,  999.0,  999.0,  999.0,  999.0,  999.0,  999.0,  999.0,  999.0,  999.0,  999.0,  999.0,  999.0,  999.0,  999.0,  999.0,  999.0,  999.0,  999.0,  999.0,  999.0,  999.0,  999.0,  999.0,  999.0,  999.0,  999.0,  999.0,  999.0
